Time,TemperatureF,DewpointF,PressureIn,WindDirection,WindDirectionDegrees,WindSpeedMPH,WindSpeedGustMPH,Humidity,HourlyPrecipIn,Conditions,Clouds,dailyrainin,SoftwareType,DateUTC
2013-01-15 00:01:00,27.1,24.3,30.27,North,1,1.0,2.0,89,0.00,,---,0.00,VWS V14.01,2013-01-15 06:01:00,
2013-01-15 00:02:00,27.1,24.3,30.27,North,359,1.0,2.0,89,0.00,,---,0.00,VWS V14.01,2013-01-15 06:02:00,
2013-01-15 00:06:00,27.1,24.3,30.27,North,11,1.0,5.0,89,0.00,,---,0.00,VWS V14.01,2013-01-15 06:06:00,
2013-01-15 00:07:00,27.1,24.3,30.27,NNW,337,0.0,5.0,89,0.00,,---,0.00,VWS V14.01,2013-01-15 06:07:00,
2013-01-15 00:11:00,27.1,24.3,30.27,North,353,1.0,5.0,89,0.00,,---,0.00,VWS V14.01,2013-01-15 06:11:00,
2013-01-15 00:12:00,27.1,24.3,30.27,North,353,1.0,5.0,89,0.00,,---,0.00,VWS V14.01,2013-01-15 06:12:00,
2013-01-15 00:13:00,27.0,24.2,30.27,NNW,332,1.0,5.0,89,0.00,,---,0.00,VWS V14.01,2013-01-15 06:13:00,
2013-01-15 00:16:00,27.0,24.2,30.27,NNW,345,2.0,2.0,89,0.00,,---,0.00,VWS V14.01,2013-01-15 06:16:00,
2013-01-15 00:17:00,27.1,24.3,30.27,North,360,2.0,2.0,89,0.00,,---,0.00,VWS V14.01,2013-01-15 06:17:00,
2013-01-15 00:18:00,27.0,24.2,30.27,North,357,2.0,4.0,89,0.00,,---,0.00,VWS V14.01,2013-01-15 06:18:00,
2013-01-15 00:21:00,27.0,24.2,30.27,NNW,339,2.0,4.0,89,0.00,,---,0.00,VWS V14.01,2013-01-15 06:21:00,
2013-01-15 00:22:00,27.0,24.2,30.27,North,4,2.0,4.0,89,0.00,,---,0.00,VWS V14.01,2013-01-15 06:22:00,
2013-01-15 00:23:00,27.0,24.2,30.27,North,353,1.0,4.0,89,0.00,,---,0.00,VWS V14.01,2013-01-15 06:23:00,
2013-01-15 00:26:00,27.0,24.2,30.27,North,1,1.0,4.0,89,0.00,,---,0.00,VWS V14.01,2013-01-15 06:26:00,
2013-01-15 00:27:00,27.0,24.2,30.27,North,1,1.0,4.0,89,0.00,,---,0.00,VWS V14.01,2013-01-15 06:27:00,
2013-01-15 00:28:00,27.0,24.2,30.27,North,3,1.0,4.0,89,0.00,,---,0.00,VWS V14.01,2013-01-15 06:28:00,
2013-01-15 00:31:00,27.0,24.2,30.27,NW,323,1.0,3.0,89,0.00,,---,0.00,VWS V14.01,2013-01-15 06:31:00,
2013-01-15 00:32:00,26.9,24.1,30.27,NNE,13,2.0,3.0,89,0.00,,---,0.00,VWS V14.01,2013-01-15 06:32:00,
2013-01-15 00:33:00,26.9,24.1,30.27,North,350,2.0,3.0,89,0.00,,---,0.00,VWS V14.01,2013-01-15 06:33:00,
2013-01-15 00:37:00,26.9,24.1,30.27,NW,305,0.0,3.0,89,0.00,,---,0.00,VWS V14.01,2013-01-15 06:37:00,
2013-01-15 00:38:00,26.9,24.1,30.27,North,4,2.0,3.0,89,0.00,,---,0.00,VWS V14.01,2013-01-15 06:38:00,
2013-01-15 00:42:00,26.9,24.1,30.27,North,4,2.0,4.0,89,0.00,,---,0.00,VWS V14.01,2013-01-15 06:42:00,
2013-01-15 00:43:00,26.9,24.1,30.27,North,359,0.0,4.0,89,0.00,,---,0.00,VWS V14.01,2013-01-15 06:43:00,
2013-01-15 00:44:00,26.9,24.1,30.27,North,359,1.0,4.0,89,0.00,,---,0.00,VWS V14.01,2013-01-15 06:44:00,
2013-01-15 00:47:00,26.9,24.1,30.27,NNE,25,1.0,5.0,89,0.00,,---,0.00,VWS V14.01,2013-01-15 06:47:00,
2013-01-15 00:48:00,26.9,24.1,30.27,NNE,15,2.0,5.0,89,0.00,,---,0.00,VWS V14.01,2013-01-15 06:48:00,
2013-01-15 00:49:00,26.9,24.1,30.27,NNW,348,1.0,5.0,89,0.00,,---,0.00,VWS V14.01,2013-01-15 06:49:00,
2013-01-15 00:52:00,26.8,24.0,30.27,North,3,1.0,5.0,89,0.00,,---,0.00,VWS V14.01,2013-01-15 06:52:00,
2013-01-15 00:53:00,26.9,24.4,30.27,North,359,0.0,5.0,90,0.00,,---,0.00,VWS V14.01,2013-01-15 06:53:00,
2013-01-15 00:54:00,26.8,24.3,30.27,North,359,1.0,5.0,90,0.00,,---,0.00,VWS V14.01,2013-01-15 06:54:00,
2013-01-15 00:58:00,26.8,24.3,30.27,NNW,346,1.0,5.0,90,0.00,,---,0.00,VWS V14.01,2013-01-15 06:58:00,
2013-01-15 00:59:00,26.7,24.2,30.27,North,352,1.0,5.0,90,0.00,,---,0.00,VWS V14.01,2013-01-15 06:59:00,
2013-01-15 01:03:00,26.7,23.9,30.27,ENE,73,4.0,4.0,89,0.00,,---,0.00,VWS V14.01,2013-01-15 07:03:00,
2013-01-15 01:04:00,26.7,23.9,30.27,NW,321,1.0,7.0,89,0.00,,---,0.00,VWS V14.01,2013-01-15 07:04:00,
2013-01-15 01:08:00,26.7,24.2,30.26,North,354,1.0,7.0,90,0.00,,---,0.00,VWS V14.01,2013-01-15 07:08:00,
2013-01-15 01:09:00,26.7,23.9,30.26,North,360,0.0,7.0,89,0.00,,---,0.00,VWS V14.01,2013-01-15 07:09:00,
2013-01-15 01:13:00,26.6,23.8,30.26,NE,37,3.0,7.0,89,0.00,,---,0.00,VWS V14.01,2013-01-15 07:13:00,
2013-01-15 01:14:00,26.6,23.8,30.26,North,3,1.0,7.0,89,0.00,,---,0.00,VWS V14.01,2013-01-15 07:14:00,
2013-01-15 01:18:00,26.6,23.8,30.27,North,353,2.0,3.0,89,0.00,,---,0.00,VWS V14.01,2013-01-15 07:18:00,
2013-01-15 01:19:00,26.6,23.8,30.27,ENE,60,3.0,3.0,89,0.00,,---,0.00,VWS V14.01,2013-01-15 07:19:00,
2013-01-15 01:20:00,26.6,23.8,30.27,East,82,1.0,3.0,89,0.00,,---,0.00,VWS V14.01,2013-01-15 07:20:00,
2013-01-15 01:23:00,26.5,23.7,30.27,NW,325,1.0,6.0,89,0.00,,---,0.00,VWS V14.01,2013-01-15 07:23:00,
2013-01-15 01:24:00,26.6,23.8,30.27,NNW,327,1.0,6.0,89,0.00,,---,0.00,VWS V14.01,2013-01-15 07:24:00,
2013-01-15 01:25:00,26.5,23.7,30.27,NE,46,1.0,6.0,89,0.00,,---,0.00,VWS V14.01,2013-01-15 07:25:00,
2013-01-15 01:29:00,26.5,23.7,30.27,NNE,32,2.0,6.0,89,0.00,,---,0.00,VWS V14.01,2013-01-15 07:29:00,
2013-01-15 01:30:00,26.5,23.7,30.27,NE,51,3.0,6.0,89,0.00,,---,0.00,VWS V14.01,2013-01-15 07:30:00,
2013-01-15 01:34:00,26.5,23.7,30.27,NNE,26,1.0,6.0,89,0.00,,---,0.00,VWS V14.01,2013-01-15 07:34:00,
2013-01-15 01:35:00,26.5,23.7,30.26,NNW,330,4.0,6.0,89,0.00,,---,0.00,VWS V14.01,2013-01-15 07:35:00,
2013-01-15 01:39:00,26.5,23.7,30.26,NNW,344,2.0,6.0,89,0.00,,---,0.00,VWS V14.01,2013-01-15 07:39:00,
2013-01-15 01:40:00,26.5,23.7,30.26,East,98,2.0,6.0,89,0.00,,---,0.00,VWS V14.01,2013-01-15 07:40:00,
2013-01-15 01:44:00,26.4,23.6,30.26,NNE,25,2.0,6.0,89,0.00,,---,0.00,VWS V14.01,2013-01-15 07:44:00,
2013-01-15 01:45:00,26.4,23.6,30.26,NE,53,2.0,6.0,89,0.00,,---,0.00,VWS V14.01,2013-01-15 07:45:00,
2013-01-15 01:49:00,26.4,23.6,30.26,North,356,1.0,4.0,89,0.00,,---,0.00,VWS V14.01,2013-01-15 07:49:00,
2013-01-15 01:50:00,26.3,23.8,30.26,ENE,60,6.0,6.0,90,0.00,,---,0.00,VWS V14.01,2013-01-15 07:50:00,
2013-01-15 01:54:00,26.3,23.5,30.26,North,6,2.0,6.0,89,0.00,,---,0.00,VWS V14.01,2013-01-15 07:54:00,
2013-01-15 01:55:00,26.3,23.5,30.26,NNE,24,2.0,6.0,89,0.00,,---,0.00,VWS V14.01,2013-01-15 07:55:00,
2013-01-15 01:59:00,26.3,23.5,30.26,ENE,63,2.0,6.0,89,0.00,,---,0.00,VWS V14.01,2013-01-15 07:59:00,
2013-01-15 02:00:00,26.3,23.5,30.26,ENE,62,5.0,6.0,89,0.00,,---,0.00,VWS V14.01,2013-01-15 08:00:00,
2013-01-15 02:01:00,26.3,23.5,30.26,NE,44,1.0,6.0,89,0.00,,---,0.00,VWS V14.01,2013-01-15 08:01:00,
2013-01-15 02:04:00,26.2,23.4,30.25,NNE,19,2.0,4.0,89,0.00,,---,0.00,VWS V14.01,2013-01-15 08:04:00,
2013-01-15 02:05:00,26.2,23.4,30.25,NNE,20,2.0,4.0,89,0.00,,---,0.00,VWS V14.01,2013-01-15 08:05:00,
2013-01-15 02:06:00,26.2,23.7,30.25,NE,37,2.0,5.0,90,0.00,,---,0.00,VWS V14.01,2013-01-15 08:06:00,
2013-01-15 02:10:00,26.2,23.4,30.26,ENE,60,5.0,7.0,89,0.00,,---,0.00,VWS V14.01,2013-01-15 08:10:00,
2013-01-15 02:11:00,26.2,23.4,30.26,ENE,77,3.0,7.0,89,0.00,,---,0.00,VWS V14.01,2013-01-15 08:11:00,
2013-01-15 02:15:00,26.2,23.4,30.26,NNE,21,3.0,7.0,89,0.00,,---,0.00,VWS V14.01,2013-01-15 08:15:00,
2013-01-15 02:16:00,26.2,23.4,30.26,NNE,17,3.0,8.0,89,0.00,,---,0.00,VWS V14.01,2013-01-15 08:16:00,
2013-01-15 02:20:00,26.2,23.4,30.25,NNE,24,2.0,8.0,89,0.00,,---,0.00,VWS V14.01,2013-01-15 08:20:00,
2013-01-15 02:21:00,26.2,23.4,30.25,NE,44,3.0,8.0,89,0.00,,---,0.00,VWS V14.01,2013-01-15 08:21:00,
2013-01-15 02:25:00,26.1,23.3,30.25,East,79,2.0,8.0,89,0.00,,---,0.00,VWS V14.01,2013-01-15 08:25:00,
2013-01-15 02:26:00,26.1,23.3,30.25,ENE,66,5.0,8.0,89,0.00,,---,0.00,VWS V14.01,2013-01-15 08:26:00,
2013-01-15 02:30:00,26.1,23.6,30.25,North,11,1.0,8.0,90,0.00,,---,0.00,VWS V14.01,2013-01-15 08:30:00,
2013-01-15 02:31:00,26.1,23.6,30.25,ENE,58,4.0,5.0,90,0.00,,---,0.00,VWS V14.01,2013-01-15 08:31:00,
2013-01-15 02:35:00,26.1,23.6,30.25,NNW,339,0.0,7.0,90,0.00,,---,0.00,VWS V14.01,2013-01-15 08:35:00,
2013-01-15 02:36:00,26.1,23.6,30.25,East,97,4.0,7.0,90,0.00,,---,0.00,VWS V14.01,2013-01-15 08:36:00,
2013-01-15 02:40:00,26.0,23.5,30.24,NNE,22,1.0,10.0,90,0.00,,---,0.00,VWS V14.01,2013-01-15 08:40:00,
2013-01-15 02:41:00,26.0,23.5,30.24,NE,48,2.0,10.0,90,0.00,,---,0.00,VWS V14.01,2013-01-15 08:41:00,
2013-01-15 02:42:00,26.0,23.5,30.24,NE,41,2.0,10.0,90,0.00,,---,0.00,VWS V14.01,2013-01-15 08:42:00,
2013-01-15 02:45:00,26.0,23.5,30.24,ENE,70,6.0,10.0,90,0.00,,---,0.00,VWS V14.01,2013-01-15 08:45:00,
2013-01-15 02:46:00,26.0,23.5,30.24,NE,34,3.0,3.0,90,0.00,,---,0.00,VWS V14.01,2013-01-15 08:46:00,
2013-01-15 02:47:00,25.9,23.4,30.24,SSE,160,3.0,3.0,90,0.00,,---,0.00,VWS V14.01,2013-01-15 08:47:00,
2013-01-15 02:50:00,26.0,23.5,30.24,ENE,74,3.0,8.0,90,0.00,,---,0.00,VWS V14.01,2013-01-15 08:50:00,
2013-01-15 02:51:00,25.9,23.4,30.24,North,11,1.0,8.0,90,0.00,,---,0.00,VWS V14.01,2013-01-15 08:51:00,
2013-01-15 02:52:00,25.9,23.4,30.24,NNE,25,3.0,8.0,90,0.00,,---,0.00,VWS V14.01,2013-01-15 08:52:00,
2013-01-15 02:55:00,25.9,23.4,30.23,North,360,4.0,8.0,90,0.00,,---,0.00,VWS V14.01,2013-01-15 08:55:00,
2013-01-15 02:56:00,25.9,23.4,30.23,NNE,31,2.0,8.0,90,0.00,,---,0.00,VWS V14.01,2013-01-15 08:56:00,
2013-01-15 02:57:00,25.9,23.4,30.23,NNE,15,3.0,8.0,90,0.00,,---,0.00,VWS V14.01,2013-01-15 08:57:00,
2013-01-15 03:00:00,25.9,23.4,30.23,NE,55,3.0,8.0,90,0.00,,---,0.00,VWS V14.01,2013-01-15 09:00:00,
2013-01-15 03:01:00,25.9,23.4,30.23,East,92,3.0,8.0,90,0.00,,---,0.00,VWS V14.01,2013-01-15 09:01:00,
2013-01-15 03:02:00,25.9,23.4,30.23,ENE,74,2.0,4.0,90,0.00,,---,0.00,VWS V14.01,2013-01-15 09:02:00,
2013-01-15 03:05:00,25.9,23.4,30.23,North,7,1.0,6.0,90,0.00,,---,0.00,VWS V14.01,2013-01-15 09:05:00,
2013-01-15 03:06:00,25.9,23.4,30.23,NNE,32,1.0,6.0,90,0.00,,---,0.00,VWS V14.01,2013-01-15 09:06:00,
2013-01-15 03:07:00,25.9,23.4,30.23,NNW,330,1.0,6.0,90,0.00,,---,0.00,VWS V14.01,2013-01-15 09:07:00,
2013-01-15 03:10:00,25.9,23.4,30.23,North,4,2.0,6.0,90,0.00,,---,0.00,VWS V14.01,2013-01-15 09:10:00,
2013-01-15 03:11:00,25.8,23.3,30.23,NNE,20,2.0,6.0,90,0.00,,---,0.00,VWS V14.01,2013-01-15 09:11:00,
2013-01-15 03:12:00,25.9,23.4,30.24,NE,56,1.0,6.0,90,0.00,,---,0.00,VWS V14.01,2013-01-15 09:12:00,
2013-01-15 03:15:00,25.8,23.3,30.23,NNE,24,1.0,6.0,90,0.00,,---,0.00,VWS V14.01,2013-01-15 09:15:00,
2013-01-15 03:16:00,25.8,23.3,30.23,North,7,2.0,3.0,90,0.00,,---,0.00,VWS V14.01,2013-01-15 09:16:00,
2013-01-15 03:17:00,25.8,23.5,30.23,North,359,2.0,5.0,91,0.00,,---,0.00,VWS V14.01,2013-01-15 09:17:00,
2013-01-15 03:21:00,25.8,23.5,30.23,NNW,332,1.0,5.0,91,0.00,,---,0.00,VWS V14.01,2013-01-15 09:21:00,
2013-01-15 03:22:00,25.8,23.5,30.23,East,85,5.0,6.0,91,0.00,,---,0.00,VWS V14.01,2013-01-15 09:22:00,
2013-01-15 03:26:00,25.8,23.5,30.23,SSE,148,1.0,6.0,91,0.00,,---,0.00,VWS V14.01,2013-01-15 09:26:00,
2013-01-15 03:27:00,25.8,23.5,30.23,NNE,19,1.0,6.0,91,0.00,,---,0.00,VWS V14.01,2013-01-15 09:27:00,
2013-01-15 03:31:00,25.7,23.4,30.23,NNE,29,1.0,1.0,91,0.00,,---,0.00,VWS V14.01,2013-01-15 09:31:00,
2013-01-15 03:32:00,25.8,23.5,30.23,North,1,1.0,2.0,91,0.00,,---,0.00,VWS V14.01,2013-01-15 09:32:00,
2013-01-15 03:36:00,25.7,23.4,30.23,NE,48,2.0,3.0,91,0.00,,---,0.00,VWS V14.01,2013-01-15 09:36:00,
2013-01-15 03:37:00,25.7,23.4,30.23,ESE,121,5.0,5.0,91,0.00,,---,0.00,VWS V14.01,2013-01-15 09:37:00,
2013-01-15 03:41:00,25.7,23.4,30.23,North,356,2.0,8.0,91,0.00,,---,0.00,VWS V14.01,2013-01-15 09:41:00,
2013-01-15 03:42:00,25.7,23.4,30.23,North,359,1.0,8.0,91,0.00,,---,0.00,VWS V14.01,2013-01-15 09:42:00,
2013-01-15 03:46:00,25.7,23.4,30.23,NE,40,1.0,4.0,91,0.00,,---,0.00,VWS V14.01,2013-01-15 09:46:00,
2013-01-15 03:47:00,25.7,23.4,30.23,NNE,18,1.0,4.0,91,0.00,,---,0.00,VWS V14.01,2013-01-15 09:47:00,
2013-01-15 03:52:00,25.7,23.4,30.23,ENE,77,3.0,4.0,91,0.00,,---,0.00,VWS V14.01,2013-01-15 09:52:00,
2013-01-15 03:57:00,25.7,23.4,30.23,NNE,26,1.0,4.0,91,0.00,,---,0.00,VWS V14.01,2013-01-15 09:57:00,
2013-01-15 04:02:00,25.7,23.4,30.23,East,79,3.0,3.0,91,0.00,,---,0.00,VWS V14.01,2013-01-15 10:02:00,
2013-01-15 04:07:00,25.7,23.4,30.23,ENE,72,2.0,5.0,91,0.00,,---,0.00,VWS V14.01,2013-01-15 10:07:00,
2013-01-15 04:12:00,25.7,23.7,30.22,NNE,26,3.0,6.0,92,0.00,,---,0.00,VWS V14.01,2013-01-15 10:12:00,
2013-01-15 04:17:00,25.8,23.5,30.22,ENE,72,2.0,5.0,91,0.00,,---,0.00,VWS V14.01,2013-01-15 10:17:00,
2013-01-15 04:18:00,25.8,23.5,30.22,NE,45,2.0,5.0,91,0.00,,---,0.00,VWS V14.01,2013-01-15 10:18:00,
2013-01-15 04:22:00,25.8,23.8,30.22,ENE,78,0.0,8.0,92,0.00,,---,0.00,VWS V14.01,2013-01-15 10:22:00,
2013-01-15 04:23:00,25.8,23.8,30.22,NE,37,1.0,8.0,92,0.00,,---,0.00,VWS V14.01,2013-01-15 10:23:00,
2013-01-15 04:27:00,25.8,23.8,30.22,ENE,74,1.0,8.0,92,0.00,,---,0.00,VWS V14.01,2013-01-15 10:27:00,
2013-01-15 04:28:00,25.8,23.8,30.22,NE,35,1.0,8.0,92,0.00,,---,0.00,VWS V14.01,2013-01-15 10:28:00,
2013-01-15 04:32:00,25.9,23.9,30.22,East,83,2.0,3.0,92,0.00,,---,0.00,VWS V14.01,2013-01-15 10:32:00,
2013-01-15 04:33:00,25.9,23.9,30.22,ENE,65,1.0,3.0,92,0.00,,---,0.00,VWS V14.01,2013-01-15 10:33:00,
2013-01-15 04:37:00,25.9,23.9,30.21,East,84,4.0,4.0,92,0.00,,---,0.00,VWS V14.01,2013-01-15 10:37:00,
2013-01-15 04:38:00,25.9,23.9,30.21,NE,37,2.0,4.0,92,0.00,,---,0.00,VWS V14.01,2013-01-15 10:38:00,
2013-01-15 04:42:00,25.9,23.9,30.22,North,6,2.0,6.0,92,0.00,,---,0.00,VWS V14.01,2013-01-15 10:42:00,
2013-01-15 04:45:00,25.9,23.9,30.21,ENE,70,4.0,4.0,92,0.00,,---,0.00,VWS V14.01,2013-01-15 10:45:00,
2013-01-15 04:47:00,26.0,24.0,30.22,NNE,27,2.0,7.0,92,0.00,,---,0.00,VWS V14.01,2013-01-15 10:47:00,
2013-01-15 04:50:00,26.0,24.0,30.22,ENE,76,5.0,7.0,92,0.00,,---,0.00,VWS V14.01,2013-01-15 10:50:00,
2013-01-15 04:52:00,26.0,24.0,30.22,NE,52,3.0,7.0,92,0.00,,---,0.00,VWS V14.01,2013-01-15 10:52:00,
2013-01-15 04:55:00,26.0,24.0,30.22,NNE,27,2.0,7.0,92,0.00,,---,0.00,VWS V14.01,2013-01-15 10:55:00,
2013-01-15 04:57:00,26.1,24.1,30.22,NE,55,2.0,7.0,92,0.00,,---,0.00,VWS V14.01,2013-01-15 10:57:00,
2013-01-15 05:00:00,26.1,24.1,30.22,East,86,4.0,7.0,92,0.00,,---,0.00,VWS V14.01,2013-01-15 11:00:00,
2013-01-15 05:02:00,26.1,24.1,30.22,ENE,60,6.0,6.0,92,0.00,,---,0.00,VWS V14.01,2013-01-15 11:02:00,
2013-01-15 05:03:00,26.1,24.1,30.22,NE,55,3.0,6.0,92,0.00,,---,0.00,VWS V14.01,2013-01-15 11:03:00,
2013-01-15 05:05:00,26.1,24.1,30.22,ENE,78,4.0,9.0,92,0.00,,---,0.00,VWS V14.01,2013-01-15 11:05:00,
2013-01-15 05:07:00,26.1,24.1,30.22,ENE,62,2.0,9.0,92,0.00,,---,0.00,VWS V14.01,2013-01-15 11:07:00,
2013-01-15 05:08:00,26.1,24.1,30.22,ENE,63,2.0,9.0,92,0.00,,---,0.00,VWS V14.01,2013-01-15 11:08:00,
2013-01-15 05:10:00,26.1,24.1,30.21,NE,34,1.0,11.0,92,0.00,,---,0.00,VWS V14.01,2013-01-15 11:10:00,
2013-01-15 05:13:00,26.1,24.1,30.21,ENE,66,5.0,11.0,92,0.00,,---,0.00,VWS V14.01,2013-01-15 11:13:00,
2013-01-15 05:15:00,26.2,24.2,30.21,ENE,70,3.0,11.0,92,0.00,,---,0.00,VWS V14.01,2013-01-15 11:15:00,
2013-01-15 05:18:00,26.2,24.2,30.21,ENE,74,3.0,6.0,92,0.00,,---,0.00,VWS V14.01,2013-01-15 11:18:00,
2013-01-15 05:20:00,26.2,24.2,30.20,NE,34,2.0,10.0,92,0.00,,---,0.00,VWS V14.01,2013-01-15 11:20:00,
2013-01-15 05:21:00,26.2,24.2,30.20,NNE,15,2.0,10.0,92,0.00,,---,0.00,VWS V14.01,2013-01-15 11:21:00,
2013-01-15 05:23:00,26.2,24.2,30.20,ENE,65,3.0,10.0,92,0.00,,---,0.00,VWS V14.01,2013-01-15 11:23:00,
2013-01-15 05:25:00,26.2,24.2,30.20,NE,51,2.0,10.0,92,0.00,,---,0.00,VWS V14.01,2013-01-15 11:25:00,
2013-01-15 05:26:00,26.2,24.2,30.20,North,357,2.0,10.0,92,0.00,,---,0.00,VWS V14.01,2013-01-15 11:26:00,
2013-01-15 05:28:00,26.2,24.5,30.20,ENE,59,1.0,10.0,93,0.00,,---,0.00,VWS V14.01,2013-01-15 11:28:00,
2013-01-15 05:30:00,26.2,24.5,30.19,NNE,19,2.0,10.0,93,0.00,,---,0.00,VWS V14.01,2013-01-15 11:30:00,
2013-01-15 05:31:00,26.2,24.5,30.19,ESE,105,2.0,3.0,93,0.00,,---,0.00,VWS V14.01,2013-01-15 11:31:00,
2013-01-15 05:33:00,26.3,24.6,30.19,East,88,4.0,6.0,93,0.00,,---,0.00,VWS V14.01,2013-01-15 11:33:00,
2013-01-15 05:35:00,26.3,24.6,30.19,ENE,62,2.0,6.0,93,0.00,,---,0.00,VWS V14.01,2013-01-15 11:35:00,
2013-01-15 05:36:00,26.3,24.6,30.19,ENE,76,6.0,8.0,93,0.00,,---,0.00,VWS V14.01,2013-01-15 11:36:00,
2013-01-15 05:38:00,26.3,24.6,30.19,NE,38,3.0,8.0,93,0.00,,---,0.00,VWS V14.01,2013-01-15 11:38:00,
2013-01-15 05:41:00,26.3,24.6,30.19,North,353,1.0,8.0,93,0.00,,---,0.00,VWS V14.01,2013-01-15 11:41:00,
2013-01-15 05:42:00,26.3,24.6,30.19,NE,38,3.0,8.0,93,0.00,,---,0.00,VWS V14.01,2013-01-15 11:42:00,
2013-01-15 05:43:00,26.3,24.6,30.19,NNE,13,4.0,8.0,93,0.00,,---,0.00,VWS V14.01,2013-01-15 11:43:00,
2013-01-15 05:46:00,26.3,24.6,30.20,ENE,74,1.0,2.0,93,0.00,,---,0.00,VWS V14.01,2013-01-15 11:46:00,
2013-01-15 05:47:00,26.3,24.6,30.20,NNW,344,1.0,2.0,93,0.00,,---,0.00,VWS V14.01,2013-01-15 11:47:00,
2013-01-15 05:48:00,26.3,24.6,30.20,East,80,2.0,2.0,93,0.00,,---,0.00,VWS V14.01,2013-01-15 11:48:00,
2013-01-15 05:51:00,26.4,24.6,30.20,ENE,72,2.0,4.0,93,0.00,,---,0.00,VWS V14.01,2013-01-15 11:51:00,
2013-01-15 05:52:00,26.4,24.6,30.20,NNE,15,2.0,7.0,93,0.00,,---,0.00,VWS V14.01,2013-01-15 11:52:00,
2013-01-15 05:53:00,26.4,24.6,30.20,NNE,14,2.0,7.0,93,0.00,,---,0.00,VWS V14.01,2013-01-15 11:53:00,
2013-01-15 05:56:00,26.4,24.6,30.20,East,79,3.0,7.0,93,0.00,,---,0.00,VWS V14.01,2013-01-15 11:56:00,
2013-01-15 05:57:00,26.4,24.6,30.20,NE,55,2.0,7.0,93,0.00,,---,0.00,VWS V14.01,2013-01-15 11:57:00,
2013-01-15 05:58:00,26.5,24.8,30.20,NNW,345,1.0,7.0,93,0.00,,---,0.00,VWS V14.01,2013-01-15 11:58:00,
2013-01-15 06:01:00,26.5,24.8,30.20,ENE,59,4.0,9.0,93,0.00,,---,0.00,VWS V14.01,2013-01-15 12:01:00,
2013-01-15 06:02:00,26.5,24.8,30.20,NE,49,2.0,4.0,93,0.00,,---,0.00,VWS V14.01,2013-01-15 12:02:00,
2013-01-15 06:03:00,26.5,24.8,30.20,North,1,2.0,4.0,93,0.00,,---,0.00,VWS V14.01,2013-01-15 12:03:00,
2013-01-15 06:04:00,26.5,24.8,30.20,NE,49,2.0,4.0,93,0.00,,---,0.00,VWS V14.01,2013-01-15 12:04:00,
2013-01-15 06:06:00,26.5,24.8,30.21,NE,48,2.0,6.0,93,0.00,,---,0.00,VWS V14.01,2013-01-15 12:06:00,
2013-01-15 06:07:00,26.5,24.8,30.21,NE,55,5.0,6.0,93,0.00,,---,0.00,VWS V14.01,2013-01-15 12:07:00,
2013-01-15 06:08:00,26.5,24.8,30.21,NE,44,3.0,6.0,93,0.00,,---,0.00,VWS V14.01,2013-01-15 12:08:00,
2013-01-15 06:09:00,26.5,24.8,30.21,ENE,60,4.0,6.0,93,0.00,,---,0.00,VWS V14.01,2013-01-15 12:09:00,
2013-01-15 06:11:00,26.5,24.8,30.21,North,352,1.0,6.0,93,0.00,,---,0.00,VWS V14.01,2013-01-15 12:11:00,
2013-01-15 06:12:00,26.5,24.8,30.21,NNE,21,2.0,6.0,93,0.00,,---,0.00,VWS V14.01,2013-01-15 12:12:00,
2013-01-15 06:13:00,26.6,24.9,30.21,NE,45,3.0,6.0,93,0.00,,---,0.00,VWS V14.01,2013-01-15 12:13:00,
2013-01-15 06:14:00,26.6,24.9,30.21,NE,39,2.0,6.0,93,0.00,,---,0.00,VWS V14.01,2013-01-15 12:14:00,
2013-01-15 06:16:00,26.6,24.9,30.21,NNE,24,1.0,2.0,93,0.00,,---,0.00,VWS V14.01,2013-01-15 12:16:00,
2013-01-15 06:17:00,26.6,24.9,30.20,East,79,2.0,4.0,93,0.00,,---,0.00,VWS V14.01,2013-01-15 12:17:00,
2013-01-15 06:18:00,26.6,24.9,30.20,ENE,65,2.0,6.0,93,0.00,,---,0.00,VWS V14.01,2013-01-15 12:18:00,
2013-01-15 06:19:00,26.6,24.9,30.20,East,85,4.0,6.0,93,0.00,,---,0.00,VWS V14.01,2013-01-15 12:19:00,
2013-01-15 06:21:00,26.6,24.9,30.21,NNE,21,2.0,6.0,93,0.00,,---,0.00,VWS V14.01,2013-01-15 12:21:00,
2013-01-15 06:22:00,26.6,24.9,30.20,North,1,2.0,6.0,93,0.00,,---,0.00,VWS V14.01,2013-01-15 12:22:00,
2013-01-15 06:23:00,26.6,24.9,30.21,North,3,3.0,6.0,93,0.00,,---,0.00,VWS V14.01,2013-01-15 12:23:00,
2013-01-15 06:24:00,26.7,25.0,30.20,East,90,3.0,6.0,93,0.00,,---,0.00,VWS V14.01,2013-01-15 12:24:00,
2013-01-15 06:26:00,26.7,25.0,30.20,North,11,1.0,6.0,93,0.00,,---,0.00,VWS V14.01,2013-01-15 12:26:00,
2013-01-15 06:27:00,26.7,25.0,30.20,North,350,2.0,6.0,93,0.00,,---,0.00,VWS V14.01,2013-01-15 12:27:00,
2013-01-15 06:29:00,26.7,25.0,30.21,East,84,2.0,6.0,93,0.00,,---,0.00,VWS V14.01,2013-01-15 12:29:00,
2013-01-15 06:31:00,26.7,25.0,30.21,North,10,3.0,4.0,93,0.00,,---,0.00,VWS V14.01,2013-01-15 12:31:00,
2013-01-15 06:33:00,26.7,25.0,30.21,NNE,17,1.0,4.0,93,0.00,,---,0.00,VWS V14.01,2013-01-15 12:33:00,
2013-01-15 06:34:00,26.7,25.0,30.21,NNE,29,3.0,4.0,93,0.00,,---,0.00,VWS V14.01,2013-01-15 12:34:00,
2013-01-15 06:36:00,26.8,25.0,30.21,NNE,22,1.0,4.0,93,0.00,,---,0.00,VWS V14.01,2013-01-15 12:36:00,
2013-01-15 06:38:00,26.8,25.0,30.22,North,350,2.0,4.0,93,0.00,,---,0.00,VWS V14.01,2013-01-15 12:38:00,
2013-01-15 06:39:00,26.8,25.0,30.22,NE,52,3.0,5.0,93,0.00,,---,0.00,VWS V14.01,2013-01-15 12:39:00,
2013-01-15 06:41:00,26.8,25.0,30.22,NE,44,1.0,5.0,93,0.00,,---,0.00,VWS V14.01,2013-01-15 12:41:00,
2013-01-15 06:43:00,26.8,25.0,30.22,ENE,74,3.0,5.0,93,0.00,,---,0.00,VWS V14.01,2013-01-15 12:43:00,
2013-01-15 06:44:00,26.8,25.0,30.22,North,360,1.0,5.0,93,0.00,,---,0.00,VWS V14.01,2013-01-15 12:44:00,
2013-01-15 06:45:00,26.9,25.1,30.22,NE,41,2.0,5.0,93,0.00,,---,0.00,VWS V14.01,2013-01-15 12:45:00,
2013-01-15 06:46:00,26.8,25.0,30.22,NNW,348,1.0,2.0,93,0.00,,---,0.00,VWS V14.01,2013-01-15 12:46:00,
2013-01-15 06:48:00,26.9,25.1,30.22,ENE,67,2.0,6.0,93,0.00,,---,0.00,VWS V14.01,2013-01-15 12:48:00,
2013-01-15 06:49:00,26.9,25.1,30.22,North,353,2.0,6.0,93,0.00,,---,0.00,VWS V14.01,2013-01-15 12:49:00,
2013-01-15 06:50:00,26.9,25.1,30.22,NE,51,5.0,6.0,93,0.00,,---,0.00,VWS V14.01,2013-01-15 12:50:00,
2013-01-15 06:51:00,26.9,25.1,30.22,NE,41,1.0,6.0,93,0.00,,---,0.00,VWS V14.01,2013-01-15 12:51:00,
2013-01-15 06:54:00,26.9,25.1,30.21,NNE,19,2.0,6.0,93,0.00,,---,0.00,VWS V14.01,2013-01-15 12:54:00,
2013-01-15 06:55:00,26.9,25.1,30.21,North,356,4.0,6.0,93,0.00,,---,0.00,VWS V14.01,2013-01-15 12:55:00,
2013-01-15 06:56:00,26.9,25.1,30.21,East,79,5.0,6.0,93,0.00,,---,0.00,VWS V14.01,2013-01-15 12:56:00,
2013-01-15 06:59:00,26.9,25.1,30.21,ENE,58,1.0,6.0,93,0.00,,---,0.00,VWS V14.01,2013-01-15 12:59:00,
2013-01-15 07:00:00,26.9,25.1,30.21,NE,53,2.0,6.0,93,0.00,,---,0.00,VWS V14.01,2013-01-15 13:00:00,
2013-01-15 07:01:00,26.9,25.1,30.21,NNE,19,1.0,2.0,93,0.00,,---,0.00,VWS V14.01,2013-01-15 13:01:00,
2013-01-15 07:04:00,27.0,25.2,30.21,ENE,63,1.0,4.0,93,0.00,,---,0.00,VWS V14.01,2013-01-15 13:04:00,
2013-01-15 07:05:00,27.0,25.2,30.21,NE,55,2.0,4.0,93,0.00,,---,0.00,VWS V14.01,2013-01-15 13:05:00,
2013-01-15 07:07:00,27.0,25.2,30.21,ENE,71,7.0,7.0,93,0.00,,---,0.00,VWS V14.01,2013-01-15 13:07:00,
2013-01-15 07:09:00,27.0,25.2,30.21,NNE,27,2.0,9.0,93,0.00,,---,0.00,VWS V14.01,2013-01-15 13:09:00,
2013-01-15 07:10:00,27.0,25.2,30.21,NNW,340,2.0,9.0,93,0.00,,---,0.00,VWS V14.01,2013-01-15 13:10:00,
2013-01-15 07:12:00,27.0,25.2,30.22,East,86,4.0,9.0,93,0.00,,---,0.00,VWS V14.01,2013-01-15 13:12:00,
2013-01-15 07:14:00,27.1,25.4,30.22,East,86,4.0,9.0,93,0.00,,---,0.00,VWS V14.01,2013-01-15 13:14:00,
2013-01-15 07:15:00,27.1,25.4,30.22,ENE,58,4.0,10.0,93,0.00,,---,0.00,VWS V14.01,2013-01-15 13:15:00,
2013-01-15 07:17:00,27.1,25.4,30.22,East,79,6.0,9.0,93,0.00,,---,0.00,VWS V14.01,2013-01-15 13:17:00,
2013-01-15 07:19:00,27.1,25.4,30.23,SSE,157,1.0,9.0,93,0.00,,---,0.00,VWS V14.01,2013-01-15 13:19:00,
2013-01-15 07:20:00,27.1,25.4,30.23,ESE,110,3.0,9.0,93,0.00,,---,0.00,VWS V14.01,2013-01-15 13:20:00,
2013-01-15 07:22:00,27.2,25.5,30.22,East,89,4.0,9.0,93,0.00,,---,0.00,VWS V14.01,2013-01-15 13:22:00,
2013-01-15 07:28:00,27.2,25.5,30.22,East,101,2.0,9.0,93,0.00,,---,0.00,VWS V14.01,2013-01-15 13:28:00,
2013-01-15 07:29:00,27.3,25.5,30.22,ENE,76,3.0,9.0,93,0.00,,---,0.00,VWS V14.01,2013-01-15 13:29:00,
2013-01-15 07:33:00,27.3,25.5,30.22,NNE,22,2.0,4.0,93,0.00,,---,0.00,VWS V14.01,2013-01-15 13:33:00,
2013-01-15 07:34:00,27.3,25.5,30.22,NNE,27,2.0,4.0,93,0.00,,---,0.00,VWS V14.01,2013-01-15 13:34:00,
2013-01-15 07:38:00,27.4,25.6,30.22,East,87,5.0,5.0,93,0.00,,---,0.00,VWS V14.01,2013-01-15 13:38:00,
2013-01-15 07:39:00,27.4,25.6,30.22,East,81,3.0,5.0,93,0.00,,---,0.00,VWS V14.01,2013-01-15 13:39:00,
2013-01-15 07:44:00,27.4,25.6,30.23,East,79,6.0,6.0,93,0.00,,---,0.00,VWS V14.01,2013-01-15 13:44:00,
2013-01-15 07:45:00,27.4,25.6,30.23,East,87,1.0,6.0,93,0.00,,---,0.00,VWS V14.01,2013-01-15 13:45:00,
2013-01-15 07:49:00,27.5,25.8,30.23,NE,49,5.0,5.0,93,0.00,,---,0.00,VWS V14.01,2013-01-15 13:49:00,
2013-01-15 07:50:00,27.5,25.8,30.23,East,83,3.0,5.0,93,0.00,,---,0.00,VWS V14.01,2013-01-15 13:50:00,
2013-01-15 07:54:00,27.5,25.8,30.22,ENE,77,1.0,5.0,93,0.00,,---,0.00,VWS V14.01,2013-01-15 13:54:00,
2013-01-15 07:55:00,27.5,25.8,30.22,ENE,60,1.0,5.0,93,0.00,,---,0.00,VWS V14.01,2013-01-15 13:55:00,
2013-01-15 07:59:00,27.5,25.8,30.22,North,8,1.0,5.0,93,0.00,,---,0.00,VWS V14.01,2013-01-15 13:59:00,
2013-01-15 08:00:00,27.6,25.8,30.22,North,1,1.0,5.0,93,0.00,,---,0.00,VWS V14.01,2013-01-15 14:00:00,
2013-01-15 08:04:00,27.6,25.8,30.22,NE,41,3.0,5.0,93,0.00,,---,0.00,VWS V14.01,2013-01-15 14:04:00,
2013-01-15 08:05:00,27.6,25.8,30.22,NNE,13,2.0,5.0,93,0.00,,---,0.00,VWS V14.01,2013-01-15 14:05:00,
2013-01-15 08:09:00,27.7,25.9,30.23,NE,54,1.0,5.0,93,0.00,,---,0.00,VWS V14.01,2013-01-15 14:09:00,
2013-01-15 08:10:00,27.6,25.8,30.22,NE,49,1.0,5.0,93,0.00,,---,0.00,VWS V14.01,2013-01-15 14:10:00,
2013-01-15 08:14:00,27.7,25.9,30.22,NNE,25,2.0,7.0,93,0.00,,---,0.00,VWS V14.01,2013-01-15 14:14:00,
2013-01-15 08:15:00,27.7,25.9,30.22,North,357,2.0,7.0,93,0.00,,---,0.00,VWS V14.01,2013-01-15 14:15:00,
2013-01-15 08:19:00,27.8,26.0,30.23,North,3,1.0,3.0,93,0.00,,---,0.00,VWS V14.01,2013-01-15 14:19:00,
2013-01-15 08:20:00,27.8,26.0,30.23,NNW,346,3.0,4.0,93,0.00,,---,0.00,VWS V14.01,2013-01-15 14:20:00,
2013-01-15 08:24:00,27.8,26.0,30.22,NNW,347,1.0,4.0,93,0.00,,---,0.00,VWS V14.01,2013-01-15 14:24:00,
2013-01-15 08:25:00,27.9,26.1,30.22,East,87,3.0,4.0,93,0.00,,---,0.00,VWS V14.01,2013-01-15 14:25:00,
2013-01-15 08:29:00,27.9,26.1,30.22,ENE,60,0.0,5.0,93,0.00,,---,0.00,VWS V14.01,2013-01-15 14:29:00,
2013-01-15 08:30:00,28.0,26.2,30.22,NNE,28,1.0,5.0,93,0.00,,---,0.00,VWS V14.01,2013-01-15 14:30:00,
2013-01-15 08:34:00,28.0,26.2,30.22,NNE,28,4.0,5.0,93,0.00,,---,0.00,VWS V14.01,2013-01-15 14:34:00,
2013-01-15 08:35:00,28.0,26.2,30.23,NE,56,3.0,5.0,93,0.00,,---,0.00,VWS V14.01,2013-01-15 14:35:00,
2013-01-15 08:39:00,28.1,26.3,30.22,NE,45,2.0,5.0,93,0.00,,---,0.00,VWS V14.01,2013-01-15 14:39:00,
2013-01-15 08:40:00,28.1,26.3,30.22,North,1,3.0,5.0,93,0.00,,---,0.00,VWS V14.01,2013-01-15 14:40:00,
2013-01-15 08:44:00,28.1,26.3,30.22,NE,36,3.0,5.0,93,0.00,,---,0.00,VWS V14.01,2013-01-15 14:44:00,
2013-01-15 08:45:00,28.2,26.4,30.22,ENE,58,3.0,5.0,93,0.00,,---,0.00,VWS V14.01,2013-01-15 14:45:00,
2013-01-15 08:49:00,28.1,26.1,30.21,NE,49,3.0,5.0,92,0.00,,---,0.00,VWS V14.01,2013-01-15 14:49:00,
2013-01-15 08:50:00,28.1,26.1,30.21,NNE,32,2.0,5.0,92,0.00,,---,0.00,VWS V14.01,2013-01-15 14:50:00,
2013-01-15 08:51:00,28.2,26.2,30.21,North,357,1.0,5.0,92,0.00,,---,0.00,VWS V14.01,2013-01-15 14:51:00,
2013-01-15 08:55:00,28.2,26.4,30.22,NNW,343,0.0,5.0,93,0.00,,---,0.00,VWS V14.01,2013-01-15 14:55:00,
2013-01-15 08:56:00,28.3,26.5,30.22,NNW,344,0.0,5.0,93,0.00,,---,0.00,VWS V14.01,2013-01-15 14:56:00,
2013-01-15 09:00:00,28.3,26.3,30.22,North,3,1.0,6.0,92,0.00,,---,0.00,VWS V14.01,2013-01-15 15:00:00,
2013-01-15 09:01:00,28.3,26.3,30.22,North,8,1.0,6.0,92,0.00,,---,0.00,VWS V14.01,2013-01-15 15:01:00,
2013-01-15 09:05:00,28.3,26.3,30.21,ENE,60,1.0,4.0,92,0.00,,---,0.00,VWS V14.01,2013-01-15 15:05:00,
2013-01-15 09:06:00,28.3,26.3,30.21,North,357,1.0,4.0,92,0.00,,---,0.00,VWS V14.01,2013-01-15 15:06:00,
2013-01-15 09:10:00,28.3,26.3,30.21,North,8,2.0,6.0,92,0.00,,---,0.00,VWS V14.01,2013-01-15 15:10:00,
2013-01-15 09:11:00,28.3,26.3,30.20,SSE,162,3.0,6.0,92,0.00,,---,0.00,VWS V14.01,2013-01-15 15:11:00,
2013-01-15 09:15:00,28.3,26.3,30.20,East,83,5.0,7.0,92,0.00,,---,0.00,VWS V14.01,2013-01-15 15:15:00,
2013-01-15 09:16:00,28.3,26.3,30.20,ENE,73,3.0,3.0,92,0.00,,---,0.00,VWS V14.01,2013-01-15 15:16:00,
2013-01-15 09:20:00,28.3,26.3,30.20,North,8,1.0,4.0,92,0.00,,---,0.00,VWS V14.01,2013-01-15 15:20:00,
2013-01-15 09:21:00,28.4,26.4,30.20,NE,55,5.0,5.0,92,0.00,,---,0.00,VWS V14.01,2013-01-15 15:21:00,
2013-01-15 09:25:00,28.5,26.5,30.20,ENE,76,4.0,5.0,92,0.00,,---,0.00,VWS V14.01,2013-01-15 15:25:00,
2013-01-15 09:26:00,28.5,26.5,30.20,NNE,18,2.0,5.0,92,0.00,,---,0.00,VWS V14.01,2013-01-15 15:26:00,
2013-01-15 09:30:00,28.5,26.5,30.21,ENE,78,1.0,5.0,92,0.00,,---,0.00,VWS V14.01,2013-01-15 15:30:00,
2013-01-15 09:31:00,28.6,26.6,30.21,ENE,60,1.0,1.0,92,0.00,,---,0.00,VWS V14.01,2013-01-15 15:31:00,
2013-01-15 09:35:00,28.7,26.7,30.23,SE,138,1.0,5.0,92,0.00,,---,0.00,VWS V14.01,2013-01-15 15:35:00,
2013-01-15 09:36:00,28.6,26.6,30.23,East,84,2.0,5.0,92,0.00,,---,0.00,VWS V14.01,2013-01-15 15:36:00,
2013-01-15 09:40:00,28.7,26.7,30.23,NNE,20,1.0,5.0,92,0.00,,---,0.00,VWS V14.01,2013-01-15 15:40:00,
2013-01-15 09:41:00,28.7,26.7,30.23,NNE,20,1.0,5.0,92,0.00,,---,0.00,VWS V14.01,2013-01-15 15:41:00,
2013-01-15 09:42:00,28.7,26.7,30.22,NNE,18,1.0,5.0,92,0.00,,---,0.00,VWS V14.01,2013-01-15 15:42:00,
2013-01-15 09:45:00,28.7,26.7,30.22,North,353,2.0,5.0,92,0.00,,---,0.00,VWS V14.01,2013-01-15 15:45:00,
2013-01-15 09:46:00,28.8,26.8,30.22,NNE,15,1.0,2.0,92,0.00,,---,0.00,VWS V14.01,2013-01-15 15:46:00,
2013-01-15 09:47:00,28.7,26.7,30.23,NE,56,1.0,2.0,92,0.00,,---,0.00,VWS V14.01,2013-01-15 15:47:00,
2013-01-15 09:51:00,28.8,26.8,30.24,North,359,0.0,5.0,92,0.00,,---,0.00,VWS V14.01,2013-01-15 15:51:00,
2013-01-15 09:52:00,28.8,26.8,30.24,North,359,0.0,5.0,92,0.00,,---,0.00,VWS V14.01,2013-01-15 15:52:00,
2013-01-15 09:56:00,28.9,26.9,30.20,ENE,72,3.0,5.0,92,0.00,,---,0.00,VWS V14.01,2013-01-15 15:56:00,
2013-01-15 09:57:00,28.9,26.9,30.19,ENE,58,2.0,5.0,92,0.00,,---,0.00,VWS V14.01,2013-01-15 15:57:00,
2013-01-15 10:01:00,29.0,27.0,30.18,North,350,1.0,1.0,92,0.00,,---,0.00,VWS V14.01,2013-01-15 16:01:00,
2013-01-15 10:02:00,29.0,27.0,30.18,NE,45,5.0,5.0,92,0.00,,---,0.00,VWS V14.01,2013-01-15 16:02:00,
2013-01-15 10:06:00,29.1,27.1,30.18,NE,39,4.0,5.0,92,0.00,,---,0.00,VWS V14.01,2013-01-15 16:06:00,
2013-01-15 10:07:00,29.0,27.0,30.17,NNE,28,5.0,5.0,92,0.00,,---,0.00,VWS V14.01,2013-01-15 16:07:00,
2013-01-15 10:11:00,29.1,27.1,30.17,ENE,62,7.0,8.0,92,0.00,,---,0.00,VWS V14.01,2013-01-15 16:11:00,
2013-01-15 10:12:00,29.1,27.1,30.16,ENE,59,1.0,8.0,92,0.00,,---,0.00,VWS V14.01,2013-01-15 16:12:00,
2013-01-15 10:16:00,29.2,27.4,30.16,NE,51,2.0,6.0,93,0.00,,---,0.00,VWS V14.01,2013-01-15 16:16:00,
2013-01-15 10:17:00,29.2,27.2,30.16,NNE,22,4.0,6.0,92,0.00,,---,0.00,VWS V14.01,2013-01-15 16:17:00,
2013-01-15 10:18:00,29.2,27.2,30.16,East,92,4.0,6.0,92,0.00,,---,0.00,VWS V14.01,2013-01-15 16:18:00,
2013-01-15 10:21:00,29.1,27.1,30.16,East,80,2.0,7.0,92,0.00,,---,0.00,VWS V14.01,2013-01-15 16:21:00,
2013-01-15 10:22:00,29.1,27.1,30.16,ENE,63,3.0,7.0,92,0.00,,---,0.00,VWS V14.01,2013-01-15 16:22:00,
2013-01-15 10:23:00,29.1,27.1,30.16,North,4,3.0,7.0,92,0.00,,---,0.00,VWS V14.01,2013-01-15 16:23:00,
2013-01-15 10:26:00,29.0,27.0,30.16,North,357,1.0,7.0,92,0.00,,---,0.00,VWS V14.01,2013-01-15 16:26:00,
2013-01-15 10:27:00,29.0,27.0,30.16,North,359,2.0,7.0,92,0.00,,---,0.00,VWS V14.01,2013-01-15 16:27:00,
2013-01-15 10:28:00,29.0,27.0,30.15,NNE,18,2.0,7.0,92,0.00,,---,0.00,VWS V14.01,2013-01-15 16:28:00,
2013-01-15 10:31:00,28.9,26.9,30.16,NNE,18,2.0,6.0,92,0.00,,---,0.00,VWS V14.01,2013-01-15 16:31:00,
2013-01-15 10:32:00,28.9,26.9,30.16,ENE,74,6.0,6.0,92,0.00,,---,0.00,VWS V14.01,2013-01-15 16:32:00,
2013-01-15 10:33:00,28.9,26.9,30.16,NE,42,1.0,6.0,92,0.00,,---,0.00,VWS V14.01,2013-01-15 16:33:00,
2013-01-15 10:37:00,28.9,26.9,30.15,East,82,7.0,9.0,92,0.00,,---,0.00,VWS V14.01,2013-01-15 16:37:00,
2013-01-15 10:38:00,28.9,26.9,30.15,ENE,60,4.0,9.0,92,0.00,,---,0.00,VWS V14.01,2013-01-15 16:38:00,
2013-01-15 10:42:00,28.8,26.8,30.16,ENE,63,2.0,9.0,92,0.00,,---,0.00,VWS V14.01,2013-01-15 16:42:00,
2013-01-15 10:43:00,28.9,26.9,30.16,ENE,66,2.0,9.0,92,0.00,,---,0.00,VWS V14.01,2013-01-15 16:43:00,
2013-01-15 10:47:00,28.9,26.9,30.13,ESE,123,6.0,6.0,92,0.00,,---,0.00,VWS V14.01,2013-01-15 16:47:00,
2013-01-15 10:48:00,28.9,26.9,30.13,NE,42,2.0,6.0,92,0.00,,---,0.00,VWS V14.01,2013-01-15 16:48:00,
2013-01-15 10:52:00,28.8,26.8,30.12,East,80,3.0,7.0,92,0.00,,---,0.00,VWS V14.01,2013-01-15 16:52:00,
2013-01-15 10:53:00,28.8,26.8,30.12,ENE,62,1.0,7.0,92,0.00,,---,0.00,VWS V14.01,2013-01-15 16:53:00,
2013-01-15 10:57:00,28.8,26.8,30.12,NNE,22,3.0,7.0,92,0.00,,---,0.00,VWS V14.01,2013-01-15 16:57:00,
2013-01-15 10:58:00,28.8,26.8,30.12,ENE,60,1.0,7.0,92,0.00,,---,0.00,VWS V14.01,2013-01-15 16:58:00,
2013-01-15 11:02:00,28.8,26.8,30.12,NNE,31,3.0,3.0,92,0.00,,---,0.00,VWS V14.01,2013-01-15 17:02:00,
2013-01-15 11:03:00,28.8,26.8,30.12,ENE,71,5.0,6.0,92,0.00,,---,0.00,VWS V14.01,2013-01-15 17:03:00,
2013-01-15 11:07:00,28.9,27.1,30.12,East,84,8.0,8.0,93,0.00,,---,0.00,VWS V14.01,2013-01-15 17:07:00,
2013-01-15 11:08:00,28.9,27.1,30.12,North,356,1.0,8.0,93,0.00,,---,0.00,VWS V14.01,2013-01-15 17:08:00,
2013-01-15 11:12:00,29.0,27.2,30.12,NNE,18,3.0,8.0,93,0.00,,---,0.00,VWS V14.01,2013-01-15 17:12:00,
2013-01-15 11:13:00,29.0,27.2,30.12,NE,53,3.0,8.0,93,0.00,,---,0.00,VWS V14.01,2013-01-15 17:13:00,
2013-01-15 11:17:00,29.0,27.2,30.12,East,96,3.0,4.0,93,0.00,,---,0.00,VWS V14.01,2013-01-15 17:17:00,
2013-01-15 11:18:00,29.0,27.2,30.13,North,8,3.0,4.0,93,0.00,,---,0.00,VWS V14.01,2013-01-15 17:18:00,
2013-01-15 11:19:00,29.0,27.2,30.13,North,349,2.0,4.0,93,0.00,,---,0.00,VWS V14.01,2013-01-15 17:19:00,
2013-01-15 11:22:00,29.0,27.2,30.14,NNW,344,1.0,4.0,93,0.00,,---,0.00,VWS V14.01,2013-01-15 17:22:00,
2013-01-15 11:23:00,29.0,27.2,30.14,NNW,344,0.0,4.0,93,0.00,,---,0.00,VWS V14.01,2013-01-15 17:23:00,
2013-01-15 11:24:00,29.0,27.2,30.14,NNW,344,1.0,4.0,93,0.00,,---,0.00,VWS V14.01,2013-01-15 17:24:00,
2013-01-15 11:27:00,29.0,27.0,30.12,NE,51,4.0,6.0,92,0.00,,---,0.00,VWS V14.01,2013-01-15 17:27:00,
2013-01-15 11:28:00,29.0,27.0,30.12,ENE,58,3.0,6.0,92,0.00,,---,0.00,VWS V14.01,2013-01-15 17:28:00,
2013-01-15 11:29:00,29.0,27.2,30.11,North,3,2.0,6.0,93,0.00,,---,0.00,VWS V14.01,2013-01-15 17:29:00,
2013-01-15 11:32:00,29.0,27.0,30.12,NW,311,2.0,5.0,92,0.00,,---,0.00,VWS V14.01,2013-01-15 17:32:00,
2013-01-15 11:33:00,29.0,27.0,30.13,NE,48,3.0,5.0,92,0.00,,---,0.00,VWS V14.01,2013-01-15 17:33:00,
2013-01-15 11:34:00,29.0,27.2,30.14,NW,319,1.0,5.0,93,0.00,,---,0.00,VWS V14.01,2013-01-15 17:34:00,
2013-01-15 11:37:00,29.2,27.4,30.17,NNW,340,1.0,5.0,93,0.00,,---,0.00,VWS V14.01,2013-01-15 17:37:00,
2013-01-15 11:38:00,29.2,27.4,30.17,NNE,25,2.0,5.0,93,0.00,,---,0.00,VWS V14.01,2013-01-15 17:38:00,
2013-01-15 11:39:00,29.2,27.4,30.17,NNW,346,2.0,5.0,93,0.00,,---,0.00,VWS V14.01,2013-01-15 17:39:00,
2013-01-15 11:42:00,29.4,27.6,30.18,NW,319,2.0,5.0,93,0.00,,---,0.00,VWS V14.01,2013-01-15 17:42:00,
2013-01-15 11:43:00,29.5,27.7,30.17,NNW,343,1.0,5.0,93,0.00,,---,0.00,VWS V14.01,2013-01-15 17:43:00,
2013-01-15 11:44:00,29.5,28.0,30.17,NNE,15,2.0,5.0,94,0.00,,---,0.00,VWS V14.01,2013-01-15 17:44:00,
2013-01-15 11:47:00,29.7,27.9,30.16,NE,51,2.0,3.0,93,0.00,,---,0.00,VWS V14.01,2013-01-15 17:47:00,
2013-01-15 11:48:00,29.7,27.9,30.16,NNW,343,1.0,3.0,93,0.00,,---,0.00,VWS V14.01,2013-01-15 17:48:00,
2013-01-15 11:49:00,29.7,27.9,30.16,NNW,333,2.0,3.0,93,0.00,,---,0.00,VWS V14.01,2013-01-15 17:49:00,
2013-01-15 11:52:00,29.8,28.0,30.16,North,358,2.0,4.0,93,0.00,,---,0.00,VWS V14.01,2013-01-15 17:52:00,
2013-01-15 11:53:00,29.7,27.9,30.16,North,4,1.0,4.0,93,0.00,,---,0.00,VWS V14.01,2013-01-15 17:53:00,
2013-01-15 11:54:00,29.8,28.0,30.16,NNW,330,0.0,4.0,93,0.00,,---,0.00,VWS V14.01,2013-01-15 17:54:00,
2013-01-15 11:57:00,29.7,27.9,30.16,NNE,14,3.0,4.0,93,0.00,,---,0.00,VWS V14.01,2013-01-15 17:57:00,
2013-01-15 11:58:00,29.7,27.9,30.16,WNW,298,1.0,4.0,93,0.00,,---,0.00,VWS V14.01,2013-01-15 17:58:00,
2013-01-15 11:59:00,29.7,27.9,30.17,WNW,299,0.0,4.0,93,0.00,,---,0.00,VWS V14.01,2013-01-15 17:59:00,
2013-01-15 12:03:00,29.7,27.9,30.18,NNW,335,0.0,3.0,93,0.00,,---,0.00,VWS V14.01,2013-01-15 18:03:00,
2013-01-15 12:04:00,29.7,27.9,30.18,NW,326,0.0,3.0,93,0.00,,---,0.00,VWS V14.01,2013-01-15 18:04:00,
2013-01-15 12:08:00,29.7,27.9,30.18,NW,324,1.0,3.0,93,0.00,,---,0.00,VWS V14.01,2013-01-15 18:08:00,
2013-01-15 12:09:00,29.7,27.9,30.18,NNW,330,1.0,3.0,93,0.00,,---,0.00,VWS V14.01,2013-01-15 18:09:00,
2013-01-15 12:13:00,29.7,27.9,30.15,NNE,18,3.0,3.0,93,0.00,,---,0.00,VWS V14.01,2013-01-15 18:13:00,
2013-01-15 12:14:00,29.7,27.9,30.15,NNW,330,2.0,4.0,93,0.00,,---,0.00,VWS V14.01,2013-01-15 18:14:00,
2013-01-15 12:15:00,29.7,27.9,30.15,NNW,339,2.0,4.0,93,0.00,,---,0.00,VWS V14.01,2013-01-15 18:15:00,
2013-01-15 12:18:00,29.8,28.3,30.15,NNW,330,1.0,3.0,94,0.00,,---,0.00,VWS V14.01,2013-01-15 18:18:00,
2013-01-15 12:19:00,29.8,28.3,30.15,NW,314,2.0,3.0,94,0.00,,---,0.00,VWS V14.01,2013-01-15 18:19:00,
2013-01-15 12:20:00,29.8,28.3,30.15,NW,318,1.0,3.0,94,0.00,,---,0.00,VWS V14.01,2013-01-15 18:20:00,
2013-01-15 12:23:00,29.9,28.4,30.16,North,3,1.0,3.0,94,0.00,,---,0.00,VWS V14.01,2013-01-15 18:23:00,
2013-01-15 12:24:00,29.9,28.4,30.16,North,7,2.0,3.0,94,0.00,,---,0.00,VWS V14.01,2013-01-15 18:24:00,
2013-01-15 12:25:00,29.9,28.4,30.16,NNW,334,2.0,3.0,94,0.00,,---,0.00,VWS V14.01,2013-01-15 18:25:00,
2013-01-15 12:29:00,29.7,27.9,30.17,North,358,1.0,4.0,93,0.00,,---,0.00,VWS V14.01,2013-01-15 18:29:00,
2013-01-15 12:30:00,29.7,27.9,30.17,NNE,21,1.0,4.0,93,0.00,,---,0.00,VWS V14.01,2013-01-15 18:30:00,
2013-01-15 12:34:00,29.7,27.9,30.17,ENE,70,1.0,3.0,93,0.00,,---,0.00,VWS V14.01,2013-01-15 18:34:00,
2013-01-15 12:35:00,29.6,27.8,30.16,NNE,24,2.0,3.0,93,0.00,,---,0.00,VWS V14.01,2013-01-15 18:35:00,
2013-01-15 12:36:00,29.6,27.8,30.16,NNE,13,2.0,4.0,93,0.00,,---,0.00,VWS V14.01,2013-01-15 18:36:00,
2013-01-15 12:39:00,29.4,27.6,30.15,NW,326,3.0,4.0,93,0.00,,---,0.00,VWS V14.01,2013-01-15 18:39:00,
2013-01-15 12:40:00,29.4,27.6,30.15,North,357,1.0,4.0,93,0.00,,---,0.00,VWS V14.01,2013-01-15 18:40:00,
2013-01-15 12:41:00,29.4,27.6,30.15,NNW,332,1.0,4.0,93,0.00,,---,0.00,VWS V14.01,2013-01-15 18:41:00,
2013-01-15 12:44:00,29.3,27.5,30.15,NNE,15,1.0,4.0,93,0.00,,---,0.00,VWS V14.01,2013-01-15 18:44:00,
2013-01-15 12:45:00,29.3,27.5,30.15,NNW,346,2.0,4.0,93,0.00,,---,0.00,VWS V14.01,2013-01-15 18:45:00,
2013-01-15 12:46:00,29.3,27.5,30.15,NW,325,1.0,4.0,93,0.00,,---,0.00,VWS V14.01,2013-01-15 18:46:00,
2013-01-15 12:49:00,29.3,27.5,30.16,ENE,63,2.0,2.0,93,0.00,,---,0.00,VWS V14.01,2013-01-15 18:49:00,
2013-01-15 12:50:00,29.3,27.8,30.16,North,8,1.0,2.0,94,0.00,,---,0.00,VWS V14.01,2013-01-15 18:50:00,
2013-01-15 12:51:00,29.3,27.8,30.16,North,6,1.0,2.0,94,0.00,,---,0.00,VWS V14.01,2013-01-15 18:51:00,
2013-01-15 12:54:00,29.3,27.8,30.17,NNE,31,4.0,5.0,94,0.00,,---,0.00,VWS V14.01,2013-01-15 18:54:00,
2013-01-15 12:55:00,29.3,27.8,30.17,NNE,17,1.0,5.0,94,0.00,,---,0.00,VWS V14.01,2013-01-15 18:55:00,
2013-01-15 12:56:00,29.3,27.8,30.17,NW,318,1.0,5.0,94,0.00,,---,0.00,VWS V14.01,2013-01-15 18:56:00,
2013-01-15 12:59:00,29.3,27.8,30.17,North,10,2.0,5.0,94,0.00,,---,0.00,VWS V14.01,2013-01-15 18:59:00,
2013-01-15 13:00:00,29.2,27.4,30.16,NW,308,0.0,5.0,93,0.00,,---,0.00,VWS V14.01,2013-01-15 19:00:00,
2013-01-15 13:01:00,29.2,27.4,30.16,NW,308,1.0,5.0,93,0.00,,---,0.00,VWS V14.01,2013-01-15 19:01:00,
2013-01-15 13:04:00,29.1,27.3,30.15,NNE,15,1.0,4.0,93,0.00,,---,0.00,VWS V14.01,2013-01-15 19:04:00,
2013-01-15 13:05:00,29.1,27.3,30.15,North,4,1.0,4.0,93,0.00,,---,0.00,VWS V14.01,2013-01-15 19:05:00,
2013-01-15 13:06:00,29.0,27.2,30.14,North,3,0.0,4.0,93,0.00,,---,0.00,VWS V14.01,2013-01-15 19:06:00,
2013-01-15 13:09:00,29.0,27.2,30.13,NE,45,4.0,5.0,93,0.00,,---,0.00,VWS V14.01,2013-01-15 19:09:00,
2013-01-15 13:10:00,29.0,27.2,30.13,NNE,22,3.0,5.0,93,0.00,,---,0.00,VWS V14.01,2013-01-15 19:10:00,
2013-01-15 13:11:00,29.0,27.2,30.13,NE,41,2.0,5.0,93,0.00,,---,0.00,VWS V14.01,2013-01-15 19:11:00,
2013-01-15 13:14:00,29.0,27.5,30.14,NNW,328,1.0,5.0,94,0.00,,---,0.00,VWS V14.01,2013-01-15 19:14:00,
2013-01-15 13:15:00,29.1,27.6,30.13,North,8,1.0,5.0,94,0.00,,---,0.00,VWS V14.01,2013-01-15 19:15:00,
2013-01-15 13:16:00,29.2,27.7,30.13,NNW,340,3.0,3.0,94,0.00,,---,0.00,VWS V14.01,2013-01-15 19:16:00,
2013-01-15 13:19:00,29.2,27.7,30.13,North,6,1.0,4.0,94,0.00,,---,0.00,VWS V14.01,2013-01-15 19:19:00,
2013-01-15 13:20:00,29.2,27.7,30.13,NNE,21,1.0,4.0,94,0.00,,---,0.00,VWS V14.01,2013-01-15 19:20:00,
2013-01-15 13:21:00,29.2,27.7,30.13,NE,44,2.0,4.0,94,0.00,,---,0.00,VWS V14.01,2013-01-15 19:21:00,
2013-01-15 13:25:00,29.2,27.7,30.12,NE,41,1.0,4.0,94,0.00,,---,0.00,VWS V14.01,2013-01-15 19:25:00,
2013-01-15 13:26:00,29.2,27.7,30.12,NNE,19,1.0,4.0,94,0.00,,---,0.00,VWS V14.01,2013-01-15 19:26:00,
2013-01-15 13:30:00,29.1,27.6,30.12,North,3,3.0,5.0,94,0.00,,---,0.00,VWS V14.01,2013-01-15 19:30:00,
2013-01-15 13:31:00,29.1,27.6,30.12,North,11,3.0,3.0,94,0.00,,---,0.00,VWS V14.01,2013-01-15 19:31:00,
2013-01-15 13:35:00,29.1,27.6,30.11,North,350,2.0,5.0,94,0.00,,---,0.00,VWS V14.01,2013-01-15 19:35:00,
2013-01-15 13:36:00,29.2,27.7,30.11,NNE,15,2.0,5.0,94,0.00,,---,0.00,VWS V14.01,2013-01-15 19:36:00,
2013-01-15 13:37:00,29.2,27.7,30.11,NE,55,3.0,5.0,94,0.00,,---,0.00,VWS V14.01,2013-01-15 19:37:00,
2013-01-15 13:40:00,29.2,27.7,30.11,ENE,65,3.0,5.0,94,0.00,,---,0.00,VWS V14.01,2013-01-15 19:40:00,
2013-01-15 13:41:00,29.2,27.7,30.11,NNE,22,2.0,5.0,94,0.00,,---,0.00,VWS V14.01,2013-01-15 19:41:00,
2013-01-15 13:42:00,29.2,27.7,30.11,NNW,330,1.0,5.0,94,0.00,,---,0.00,VWS V14.01,2013-01-15 19:42:00,
2013-01-15 13:45:00,29.3,27.8,30.12,North,352,3.0,5.0,94,0.00,,---,0.00,VWS V14.01,2013-01-15 19:45:00,
2013-01-15 13:46:00,29.3,27.8,30.12,NNE,18,2.0,2.0,94,0.00,,---,0.00,VWS V14.01,2013-01-15 19:46:00,
2013-01-15 13:47:00,29.3,27.8,30.12,NE,39,0.0,2.0,94,0.00,,---,0.00,VWS V14.01,2013-01-15 19:47:00,
2013-01-15 13:50:00,29.3,27.8,30.11,NE,42,4.0,4.0,94,0.00,,---,0.00,VWS V14.01,2013-01-15 19:50:00,
2013-01-15 13:51:00,29.3,27.8,30.11,NE,35,2.0,5.0,94,0.00,,---,0.00,VWS V14.01,2013-01-15 19:51:00,
2013-01-15 13:52:00,29.4,27.9,30.10,North,359,1.0,5.0,94,0.00,,---,0.00,VWS V14.01,2013-01-15 19:52:00,
2013-01-15 13:55:00,29.4,28.1,30.10,NNE,22,2.0,5.0,95,0.00,,---,0.00,VWS V14.01,2013-01-15 19:55:00,
2013-01-15 13:56:00,29.4,28.1,30.11,ENE,77,4.0,5.0,95,0.00,,---,0.00,VWS V14.01,2013-01-15 19:56:00,
2013-01-15 13:57:00,29.4,27.9,30.11,NNW,346,1.0,5.0,94,0.00,,---,0.00,VWS V14.01,2013-01-15 19:57:00,
2013-01-15 14:00:00,29.4,28.1,30.11,North,11,1.0,5.0,95,0.00,,---,0.00,VWS V14.01,2013-01-15 20:00:00,
2013-01-15 14:01:00,29.4,28.1,30.12,North,353,2.0,2.0,95,0.00,,---,0.00,VWS V14.01,2013-01-15 20:01:00,
2013-01-15 14:02:00,29.4,27.9,30.12,NNW,337,1.0,3.0,94,0.00,,---,0.00,VWS V14.01,2013-01-15 20:02:00,
2013-01-15 14:05:00,29.5,28.0,30.12,NW,319,0.0,3.0,94,0.00,,---,0.00,VWS V14.01,2013-01-15 20:05:00,
2013-01-15 14:06:00,29.5,28.2,30.12,NE,42,3.0,3.0,95,0.00,,---,0.00,VWS V14.01,2013-01-15 20:06:00,
2013-01-15 14:07:00,29.5,28.2,30.12,NNE,18,1.0,4.0,95,0.00,,---,0.00,VWS V14.01,2013-01-15 20:07:00,
2013-01-15 14:08:00,29.5,28.0,30.12,NNE,14,1.0,4.0,94,0.00,,---,0.00,VWS V14.01,2013-01-15 20:08:00,
2013-01-15 14:10:00,29.5,28.0,30.12,NE,50,2.0,4.0,94,0.00,,---,0.00,VWS V14.01,2013-01-15 20:10:00,
2013-01-15 14:11:00,29.5,28.2,30.13,North,10,1.0,4.0,95,0.00,,---,0.00,VWS V14.01,2013-01-15 20:11:00,
2013-01-15 14:12:00,29.5,28.2,30.13,North,10,0.0,4.0,95,0.00,,---,0.00,VWS V14.01,2013-01-15 20:12:00,
2013-01-15 14:13:00,29.5,28.2,30.13,North,10,0.0,4.0,95,0.00,,---,0.00,VWS V14.01,2013-01-15 20:13:00,
2013-01-15 14:15:00,29.6,28.4,30.13,East,82,1.0,4.0,95,0.00,,---,0.00,VWS V14.01,2013-01-15 20:15:00,
2013-01-15 14:16:00,29.6,28.4,30.13,NNW,341,0.0,1.0,95,0.00,,---,0.00,VWS V14.01,2013-01-15 20:16:00,
2013-01-15 14:17:00,29.6,28.4,30.13,NNW,337,2.0,2.0,95,0.00,,---,0.00,VWS V14.01,2013-01-15 20:17:00,
2013-01-15 14:18:00,29.6,28.4,30.13,North,357,1.0,3.0,95,0.00,,---,0.00,VWS V14.01,2013-01-15 20:18:00,
2013-01-15 14:21:00,29.7,28.5,30.14,North,1,0.0,3.0,95,0.00,,---,0.00,VWS V14.01,2013-01-15 20:21:00,
2013-01-15 14:22:00,29.7,28.5,30.15,West,281,1.0,3.0,95,0.00,,---,0.00,VWS V14.01,2013-01-15 20:22:00,
2013-01-15 14:23:00,29.8,28.5,30.15,WNW,285,1.0,3.0,95,0.00,,---,0.00,VWS V14.01,2013-01-15 20:23:00,
2013-01-15 14:26:00,29.8,28.5,30.15,North,357,2.0,3.0,95,0.00,,---,0.00,VWS V14.01,2013-01-15 20:26:00,
2013-01-15 14:27:00,29.8,28.5,30.15,West,268,0.0,3.0,95,0.00,,---,0.00,VWS V14.01,2013-01-15 20:27:00,
2013-01-15 14:28:00,29.8,28.5,30.15,NNE,32,3.0,3.0,95,0.00,,---,0.00,VWS V14.01,2013-01-15 20:28:00,
2013-01-15 14:31:00,29.7,28.5,30.15,NNW,330,1.0,1.0,95,0.00,,---,0.00,VWS V14.01,2013-01-15 20:31:00,
2013-01-15 14:32:00,29.8,28.5,30.15,NNW,328,0.0,1.0,95,0.00,,---,0.00,VWS V14.01,2013-01-15 20:32:00,
2013-01-15 14:33:00,29.8,28.5,30.15,NE,44,2.0,3.0,95,0.00,,---,0.00,VWS V14.01,2013-01-15 20:33:00,
2013-01-15 14:36:00,29.8,28.5,30.14,North,357,1.0,4.0,95,0.00,,---,0.00,VWS V14.01,2013-01-15 20:36:00,
2013-01-15 14:37:00,29.9,28.6,30.14,SE,131,3.0,4.0,95,0.00,,---,0.00,VWS V14.01,2013-01-15 20:37:00,
2013-01-15 14:38:00,29.9,28.6,30.14,North,4,1.0,4.0,95,0.00,,---,0.00,VWS V14.01,2013-01-15 20:38:00,
2013-01-15 14:41:00,29.8,28.5,30.13,NE,45,4.0,4.0,95,0.00,,---,0.00,VWS V14.01,2013-01-15 20:41:00,
2013-01-15 14:42:00,29.8,28.5,30.13,ENE,76,3.0,4.0,95,0.00,,---,0.00,VWS V14.01,2013-01-15 20:42:00,
2013-01-15 14:43:00,29.8,28.5,30.13,North,8,1.0,4.0,95,0.00,,---,0.00,VWS V14.01,2013-01-15 20:43:00,
2013-01-15 14:46:00,29.7,28.5,30.13,NE,48,3.0,4.0,95,0.00,,---,0.00,VWS V14.01,2013-01-15 20:46:00,
2013-01-15 14:47:00,29.7,28.5,30.13,NNW,340,1.0,4.0,95,0.00,,---,0.00,VWS V14.01,2013-01-15 20:47:00,
2013-01-15 14:48:00,29.7,28.2,30.13,NE,49,2.0,4.0,94,0.00,,---,0.00,VWS V14.01,2013-01-15 20:48:00,
2013-01-15 14:51:00,29.7,28.2,30.13,ENE,60,3.0,4.0,94,0.00,,---,0.00,VWS V14.01,2013-01-15 20:51:00,
2013-01-15 14:52:00,29.6,28.1,30.13,North,8,1.0,4.0,94,0.00,,---,0.00,VWS V14.01,2013-01-15 20:52:00,
2013-01-15 14:53:00,29.6,28.1,30.13,ENE,60,3.0,4.0,94,0.00,,---,0.00,VWS V14.01,2013-01-15 20:53:00,
2013-01-15 14:54:00,29.6,28.1,30.13,North,10,1.0,4.0,94,0.00,,---,0.00,VWS V14.01,2013-01-15 20:54:00,
2013-01-15 14:56:00,29.6,28.4,30.14,North,353,0.0,4.0,95,0.00,,---,0.00,VWS V14.01,2013-01-15 20:56:00,
2013-01-15 14:57:00,29.6,28.4,30.14,NNE,17,1.0,4.0,95,0.00,,---,0.00,VWS V14.01,2013-01-15 20:57:00,
2013-01-15 14:58:00,29.6,28.4,30.14,North,350,1.0,4.0,95,0.00,,---,0.00,VWS V14.01,2013-01-15 20:58:00,
2013-01-15 14:59:00,29.6,28.4,30.14,NW,311,1.0,4.0,95,0.00,,---,0.00,VWS V14.01,2013-01-15 20:59:00,
2013-01-15 15:01:00,29.6,28.4,30.14,North,349,1.0,2.0,95,0.00,,---,0.00,VWS V14.01,2013-01-15 21:01:00,
2013-01-15 15:02:00,29.6,28.4,30.15,North,1,1.0,2.0,95,0.00,,---,0.00,VWS V14.01,2013-01-15 21:02:00,
2013-01-15 15:04:00,29.6,28.4,30.15,NNW,332,2.0,3.0,95,0.00,,---,0.00,VWS V14.01,2013-01-15 21:04:00,
2013-01-15 15:06:00,29.6,28.4,30.16,North,359,1.0,3.0,95,0.00,,---,0.00,VWS V14.01,2013-01-15 21:06:00,
2013-01-15 15:08:00,29.7,28.5,30.16,North,349,0.0,3.0,95,0.00,,---,0.00,VWS V14.01,2013-01-15 21:08:00,
2013-01-15 15:09:00,29.7,28.5,30.15,NNW,344,1.0,3.0,95,0.00,,---,0.00,VWS V14.01,2013-01-15 21:09:00,
2013-01-15 15:12:00,29.7,28.5,30.15,NE,49,3.0,4.0,95,0.00,,---,0.00,VWS V14.01,2013-01-15 21:12:00,
2013-01-15 15:13:00,29.6,28.4,30.15,NE,55,3.0,4.0,95,0.00,,---,0.00,VWS V14.01,2013-01-15 21:13:00,
2013-01-15 15:14:00,29.7,28.5,30.14,NNE,22,2.0,4.0,95,0.00,,---,0.00,VWS V14.01,2013-01-15 21:14:00,
2013-01-15 15:15:00,29.7,28.5,30.14,North,11,2.0,4.0,95,0.00,,---,0.00,VWS V14.01,2013-01-15 21:15:00,
2013-01-15 15:17:00,29.7,28.5,30.10,NE,44,3.0,3.0,95,0.00,,---,0.00,VWS V14.01,2013-01-15 21:17:00,
2013-01-15 15:18:00,29.7,28.5,30.09,ENE,66,1.0,3.0,95,0.00,,---,0.00,VWS V14.01,2013-01-15 21:18:00,
2013-01-15 15:19:00,29.8,28.5,30.09,ESE,111,6.0,6.0,95,0.00,,---,0.00,VWS V14.01,2013-01-15 21:19:00,
2013-01-15 15:20:00,29.8,28.5,30.09,East,87,6.0,6.0,95,0.00,,---,0.00,VWS V14.01,2013-01-15 21:20:00,
2013-01-15 15:22:00,29.8,28.5,30.08,ENE,59,2.0,7.0,95,0.00,,---,0.00,VWS V14.01,2013-01-15 21:22:00,
2013-01-15 15:23:00,29.8,28.5,30.09,North,11,2.0,7.0,95,0.00,,---,0.00,VWS V14.01,2013-01-15 21:23:00,
2013-01-15 15:24:00,29.9,28.6,30.10,NNE,25,5.0,7.0,95,0.00,,---,0.00,VWS V14.01,2013-01-15 21:24:00,
2013-01-15 15:25:00,30.0,28.7,30.10,NE,41,4.0,7.0,95,0.00,,---,0.00,VWS V14.01,2013-01-15 21:25:00,
2013-01-15 15:27:00,30.0,28.7,30.13,North,6,0.0,7.0,95,0.00,,---,0.00,VWS V14.01,2013-01-15 21:27:00,
2013-01-15 15:28:00,30.0,28.7,30.13,NE,42,1.0,7.0,95,0.00,,---,0.00,VWS V14.01,2013-01-15 21:28:00,
2013-01-15 15:29:00,30.0,28.7,30.11,ENE,60,3.0,7.0,95,0.00,,---,0.00,VWS V14.01,2013-01-15 21:29:00,
2013-01-15 15:30:00,30.0,28.7,30.11,East,80,2.0,7.0,95,0.00,,---,0.00,VWS V14.01,2013-01-15 21:30:00,
2013-01-15 15:32:00,30.0,28.7,30.12,ENE,77,1.0,2.0,95,0.00,,---,0.00,VWS V14.01,2013-01-15 21:32:00,
2013-01-15 15:33:00,30.0,28.7,30.12,NNE,15,2.0,2.0,95,0.00,,---,0.00,VWS V14.01,2013-01-15 21:33:00,
2013-01-15 15:35:00,30.0,28.7,30.12,ENE,60,1.0,2.0,95,0.00,,---,0.00,VWS V14.01,2013-01-15 21:35:00,
2013-01-15 15:37:00,30.1,28.8,30.11,ESE,107,2.0,3.0,95,0.00,,---,0.00,VWS V14.01,2013-01-15 21:37:00,
2013-01-15 15:38:00,30.1,28.8,30.11,NE,55,1.0,3.0,95,0.00,,---,0.00,VWS V14.01,2013-01-15 21:38:00,
2013-01-15 15:40:00,30.2,28.9,30.11,North,359,1.0,3.0,95,0.00,,---,0.00,VWS V14.01,2013-01-15 21:40:00,
2013-01-15 15:42:00,30.2,28.9,30.10,NE,56,4.0,4.0,95,0.00,,---,0.00,VWS V14.01,2013-01-15 21:42:00,
2013-01-15 15:43:00,30.2,28.9,30.10,ENE,77,4.0,4.0,95,0.00,,---,0.00,VWS V14.01,2013-01-15 21:43:00,
2013-01-15 15:45:00,30.1,28.8,30.10,NE,35,1.0,5.0,95,0.00,,---,0.00,VWS V14.01,2013-01-15 21:45:00,
2013-01-15 15:47:00,30.1,28.8,30.10,ENE,74,3.0,4.0,95,0.00,,---,0.00,VWS V14.01,2013-01-15 21:47:00,
2013-01-15 15:48:00,30.1,28.8,30.10,NNW,344,1.0,4.0,95,0.00,,---,0.00,VWS V14.01,2013-01-15 21:48:00,
2013-01-15 15:50:00,30.0,28.7,30.11,North,3,2.0,4.0,95,0.00,,---,0.00,VWS V14.01,2013-01-15 21:50:00,
2013-01-15 15:53:00,30.0,28.7,30.10,North,349,2.0,4.0,95,0.00,,---,0.00,VWS V14.01,2013-01-15 21:53:00,
2013-01-15 15:55:00,30.0,28.7,30.10,NE,51,2.0,5.0,95,0.00,,---,0.00,VWS V14.01,2013-01-15 21:55:00,
2013-01-15 15:56:00,30.0,28.7,30.10,NNE,21,1.0,5.0,95,0.00,,---,0.00,VWS V14.01,2013-01-15 21:56:00,
2013-01-15 15:58:00,30.0,28.7,30.11,ENE,74,1.0,5.0,95,0.00,,---,0.00,VWS V14.01,2013-01-15 21:58:00,
2013-01-15 16:01:00,30.0,28.7,30.12,NNW,342,0.0,5.0,95,0.00,,---,0.00,VWS V14.01,2013-01-15 22:01:00,
2013-01-15 16:03:00,30.0,28.7,30.12,NNW,345,1.0,1.0,95,0.00,,---,0.00,VWS V14.01,2013-01-15 22:03:00,
2013-01-15 16:06:00,30.0,28.7,30.13,North,1,1.0,3.0,95,0.00,,---,0.00,VWS V14.01,2013-01-15 22:06:00,
2013-01-15 16:08:00,30.0,28.7,30.12,East,91,2.0,3.0,95,0.00,,---,0.00,VWS V14.01,2013-01-15 22:08:00,
2013-01-15 16:11:00,30.0,28.7,30.11,NE,38,2.0,3.0,95,0.00,,---,0.00,VWS V14.01,2013-01-15 22:11:00,
2013-01-15 16:13:00,30.0,28.7,30.11,NNE,18,1.0,3.0,95,0.00,,---,0.00,VWS V14.01,2013-01-15 22:13:00,
2013-01-15 16:16:00,30.1,28.8,30.11,NNE,21,2.0,2.0,95,0.00,,---,0.00,VWS V14.01,2013-01-15 22:16:00,
2013-01-15 16:18:00,30.1,28.8,30.09,East,80,3.0,3.0,95,0.00,,---,0.00,VWS V14.01,2013-01-15 22:18:00,
2013-01-15 16:21:00,30.1,28.8,30.09,North,8,2.0,3.0,95,0.00,,---,0.00,VWS V14.01,2013-01-15 22:21:00,
2013-01-15 16:23:00,30.2,28.9,30.08,NE,55,2.0,3.0,95,0.00,,---,0.00,VWS V14.01,2013-01-15 22:23:00,
2013-01-15 16:26:00,30.2,28.9,30.07,North,354,2.0,5.0,95,0.00,,---,0.00,VWS V14.01,2013-01-15 22:26:00,
2013-01-15 16:27:00,30.2,28.9,30.06,NNE,17,2.0,5.0,95,0.00,,---,0.00,VWS V14.01,2013-01-15 22:27:00,
2013-01-15 16:28:00,30.2,28.9,30.06,East,82,3.0,5.0,95,0.00,,---,0.00,VWS V14.01,2013-01-15 22:28:00,
2013-01-15 16:31:00,30.2,28.9,30.07,ENE,72,2.0,2.0,95,0.00,,---,0.00,VWS V14.01,2013-01-15 22:31:00,
2013-01-15 16:32:00,30.2,28.9,30.09,ENE,74,0.0,2.0,95,0.00,,---,0.00,VWS V14.01,2013-01-15 22:32:00,
2013-01-15 16:33:00,30.2,28.9,30.10,East,93,1.0,2.0,95,0.00,,---,0.00,VWS V14.01,2013-01-15 22:33:00,
2013-01-15 16:34:00,30.2,28.9,30.10,ESE,103,1.0,2.0,95,0.00,,---,0.00,VWS V14.01,2013-01-15 22:34:00,
2013-01-15 16:36:00,30.3,29.0,30.11,North,10,0.0,2.0,95,0.00,,---,0.00,VWS V14.01,2013-01-15 22:36:00,
2013-01-15 16:37:00,30.3,29.0,30.11,North,10,0.0,2.0,95,0.00,,---,0.00,VWS V14.01,2013-01-15 22:37:00,
2013-01-15 16:38:00,30.3,29.0,30.10,NNE,18,2.0,2.0,95,0.00,,---,0.00,VWS V14.01,2013-01-15 22:38:00,
2013-01-15 16:39:00,30.3,29.0,30.10,North,360,0.0,2.0,95,0.00,,---,0.00,VWS V14.01,2013-01-15 22:39:00,
2013-01-15 16:41:00,30.2,28.9,30.09,ENE,74,3.0,3.0,95,0.00,,---,0.00,VWS V14.01,2013-01-15 22:41:00,
2013-01-15 16:42:00,30.2,28.9,30.09,NE,51,3.0,3.0,95,0.00,,---,0.00,VWS V14.01,2013-01-15 22:42:00,
2013-01-15 16:43:00,30.2,28.9,30.09,North,6,1.0,3.0,95,0.00,,---,0.00,VWS V14.01,2013-01-15 22:43:00,
2013-01-15 16:44:00,30.2,28.9,30.09,North,10,0.0,3.0,95,0.00,,---,0.00,VWS V14.01,2013-01-15 22:44:00,
2013-01-15 16:46:00,30.2,28.9,30.09,NNE,17,0.0,2.0,95,0.00,,---,0.00,VWS V14.01,2013-01-15 22:46:00,
2013-01-15 16:47:00,30.2,28.9,30.09,NNE,17,0.0,2.0,95,0.00,,---,0.00,VWS V14.01,2013-01-15 22:47:00,
2013-01-15 16:48:00,30.1,28.8,30.08,North,359,1.0,2.0,95,0.00,,---,0.00,VWS V14.01,2013-01-15 22:48:00,
2013-01-15 16:49:00,30.2,28.9,30.08,NE,48,3.0,3.0,95,0.00,,---,0.00,VWS V14.01,2013-01-15 22:49:00,
2013-01-15 16:52:00,30.1,28.8,30.08,ENE,75,3.0,4.0,95,0.00,,---,0.00,VWS V14.01,2013-01-15 22:52:00,
2013-01-15 16:54:00,30.1,28.8,30.09,ESE,103,0.0,4.0,95,0.00,,---,0.00,VWS V14.01,2013-01-15 22:54:00,
2013-01-15 16:57:00,30.1,28.8,30.09,NNE,31,1.0,4.0,95,0.00,,---,0.00,VWS V14.01,2013-01-15 22:57:00,
2013-01-15 16:59:00,30.1,28.8,30.09,NNW,339,1.0,4.0,95,0.00,,---,0.00,VWS V14.01,2013-01-15 22:59:00,
2013-01-15 17:02:00,30.1,28.8,30.08,NNE,18,2.0,4.0,95,0.00,,---,0.00,VWS V14.01,2013-01-15 23:02:00,
2013-01-15 17:04:00,30.1,28.8,30.09,NNW,346,2.0,4.0,95,0.00,,---,0.00,VWS V14.01,2013-01-15 23:04:00,
2013-01-15 17:07:00,30.1,28.8,30.10,East,86,4.0,4.0,95,0.00,,---,0.00,VWS V14.01,2013-01-15 23:07:00,
2013-01-15 17:09:00,30.1,28.8,30.10,ENE,72,5.0,5.0,95,0.00,,---,0.00,VWS V14.01,2013-01-15 23:09:00,
2013-01-15 17:12:00,30.2,28.9,30.10,North,359,1.0,5.0,95,0.00,,---,0.00,VWS V14.01,2013-01-15 23:12:00,
2013-01-15 17:14:00,30.2,28.9,30.10,ENE,60,1.0,5.0,95,0.00,,---,0.00,VWS V14.01,2013-01-15 23:14:00,
2013-01-15 17:17:00,30.2,28.9,30.10,North,11,1.0,1.0,95,0.00,,---,0.00,VWS V14.01,2013-01-15 23:17:00,
2013-01-15 17:19:00,30.2,28.9,30.10,NNE,24,0.0,2.0,95,0.00,,---,0.00,VWS V14.01,2013-01-15 23:19:00,
2013-01-15 17:20:00,30.2,28.9,30.10,ENE,60,1.0,2.0,95,0.00,,---,0.00,VWS V14.01,2013-01-15 23:20:00,
2013-01-15 17:22:00,30.2,28.9,30.10,North,11,1.0,2.0,95,0.00,,---,0.00,VWS V14.01,2013-01-15 23:22:00,
2013-01-15 17:24:00,30.2,28.9,30.09,North,357,2.0,4.0,95,0.00,,---,0.00,VWS V14.01,2013-01-15 23:24:00,
2013-01-15 17:25:00,30.2,28.9,30.09,NE,55,1.0,4.0,95,0.00,,---,0.00,VWS V14.01,2013-01-15 23:25:00,
2013-01-15 17:27:00,30.2,28.9,30.09,NE,49,2.0,4.0,95,0.00,,---,0.00,VWS V14.01,2013-01-15 23:27:00,
2013-01-15 17:28:00,30.2,28.9,30.09,ESE,119,2.0,4.0,95,0.00,,---,0.00,VWS V14.01,2013-01-15 23:28:00,
2013-01-15 17:29:00,30.2,28.9,30.10,NNW,340,1.0,4.0,95,0.00,,---,0.00,VWS V14.01,2013-01-15 23:29:00,
2013-01-15 17:30:00,30.2,28.9,30.10,NNE,31,0.0,4.0,95,0.00,,---,0.00,VWS V14.01,2013-01-15 23:30:00,
2013-01-15 17:32:00,30.2,28.9,30.10,NE,34,1.0,3.0,95,0.00,,---,0.00,VWS V14.01,2013-01-15 23:32:00,
2013-01-15 17:33:00,30.2,28.9,30.10,NE,37,1.0,3.0,95,0.00,,---,0.00,VWS V14.01,2013-01-15 23:33:00,
2013-01-15 17:34:00,30.2,28.9,30.10,North,11,2.0,3.0,95,0.00,,---,0.00,VWS V14.01,2013-01-15 23:34:00,
2013-01-15 17:35:00,30.2,28.9,30.10,North,360,2.0,3.0,95,0.00,,---,0.00,VWS V14.01,2013-01-15 23:35:00,
2013-01-15 17:37:00,30.2,28.9,30.09,ENE,74,2.0,4.0,95,0.00,,---,0.00,VWS V14.01,2013-01-15 23:37:00,
2013-01-15 17:38:00,30.2,28.9,30.09,East,79,4.0,4.0,95,0.00,,---,0.00,VWS V14.01,2013-01-15 23:38:00,
2013-01-15 17:40:00,30.2,28.9,30.09,NNE,31,1.0,4.0,95,0.00,,---,0.00,VWS V14.01,2013-01-15 23:40:00,
2013-01-15 17:41:00,30.2,28.9,30.09,NNE,18,1.0,4.0,95,0.00,,---,0.00,VWS V14.01,2013-01-15 23:41:00,
2013-01-15 17:42:00,30.2,28.9,30.09,East,89,1.0,4.0,95,0.00,,---,0.00,VWS V14.01,2013-01-15 23:42:00,
2013-01-15 17:43:00,30.2,28.9,30.09,NNE,17,1.0,4.0,95,0.00,,---,0.00,VWS V14.01,2013-01-15 23:43:00,
2013-01-15 17:45:00,30.2,28.9,30.09,North,3,1.0,4.0,95,0.00,,---,0.00,VWS V14.01,2013-01-15 23:45:00,
2013-01-15 17:46:00,30.2,28.9,30.09,NNW,335,1.0,4.0,95,0.00,,---,0.00,VWS V14.01,2013-01-15 23:46:00,
2013-01-15 17:48:00,30.2,28.9,30.09,NNE,29,0.0,2.0,95,0.00,,---,0.00,VWS V14.01,2013-01-15 23:48:00,
2013-01-15 17:50:00,30.2,28.9,30.09,North,354,1.0,2.0,95,0.00,,---,0.00,VWS V14.01,2013-01-15 23:50:00,
2013-01-15 17:51:00,30.2,28.9,30.09,North,349,1.0,2.0,95,0.00,,---,0.00,VWS V14.01,2013-01-15 23:51:00,
2013-01-15 17:53:00,30.2,28.9,30.10,NNE,15,0.0,3.0,95,0.00,,---,0.00,VWS V14.01,2013-01-15 23:53:00,
2013-01-15 17:55:00,30.2,28.9,30.10,ENE,60,2.0,3.0,95,0.00,,---,0.00,VWS V14.01,2013-01-15 23:55:00,
2013-01-15 17:56:00,30.2,28.9,30.10,NE,38,0.0,3.0,95,0.00,,---,0.00,VWS V14.01,2013-01-15 23:56:00,
2013-01-15 17:58:00,30.2,28.9,30.09,East,80,2.0,3.0,95,0.00,,---,0.00,VWS V14.01,2013-01-15 23:58:00,
2013-01-15 18:00:00,30.2,28.9,30.08,ENE,76,2.0,4.0,95,0.00,,---,0.00,VWS V14.01,2013-01-16 00:00:00,
2013-01-15 18:01:00,30.2,28.9,30.08,East,87,2.0,2.0,95,0.00,,---,0.00,VWS V14.01,2013-01-16 00:01:00,
2013-01-15 18:03:00,30.2,28.9,30.08,ENE,70,1.0,4.0,95,0.00,,---,0.00,VWS V14.01,2013-01-16 00:03:00,
2013-01-15 18:05:00,30.2,28.9,30.08,ENE,60,1.0,4.0,95,0.00,,---,0.00,VWS V14.01,2013-01-16 00:05:00,
2013-01-15 18:06:00,30.2,28.9,30.08,North,359,1.0,4.0,95,0.00,,---,0.00,VWS V14.01,2013-01-16 00:06:00,
2013-01-15 18:08:00,30.2,28.9,30.09,ENE,72,4.0,4.0,95,0.00,,---,0.00,VWS V14.01,2013-01-16 00:08:00,
2013-01-15 18:10:00,30.2,28.9,30.09,NNW,344,2.0,4.0,95,0.00,,---,0.00,VWS V14.01,2013-01-16 00:10:00,
2013-01-15 18:11:00,30.2,28.9,30.08,East,84,3.0,4.0,95,0.00,,---,0.00,VWS V14.01,2013-01-16 00:11:00,
2013-01-15 18:13:00,30.2,28.9,30.09,North,349,1.0,4.0,95,0.00,,---,0.00,VWS V14.01,2013-01-16 00:13:00,
2013-01-15 18:15:00,30.2,28.9,30.09,North,11,1.0,4.0,95,0.00,,---,0.00,VWS V14.01,2013-01-16 00:15:00,
2013-01-15 18:16:00,30.2,28.9,30.10,North,5,0.0,1.0,95,0.00,,---,0.00,VWS V14.01,2013-01-16 00:16:00,
2013-01-15 18:18:00,30.2,28.9,30.11,North,359,0.0,1.0,95,0.00,,---,0.00,VWS V14.01,2013-01-16 00:18:00,
2013-01-15 18:20:00,30.3,29.0,30.11,NE,51,0.0,2.0,95,0.00,,---,0.00,VWS V14.01,2013-01-16 00:20:00,
2013-01-15 18:21:00,30.3,29.0,30.12,NNW,347,0.0,2.0,95,0.00,,---,0.00,VWS V14.01,2013-01-16 00:21:00,
2013-01-15 18:23:00,30.3,29.0,30.12,East,98,1.0,2.0,95,0.00,,---,0.00,VWS V14.01,2013-01-16 00:23:00,
2013-01-15 18:24:00,30.3,29.0,30.11,East,97,1.0,2.0,95,0.00,,---,0.00,VWS V14.01,2013-01-16 00:24:00,
2013-01-15 18:25:00,30.3,29.0,30.11,North,352,1.0,2.0,95,0.00,,---,0.00,VWS V14.01,2013-01-16 00:25:00,
2013-01-15 18:26:00,30.3,29.0,30.11,North,352,0.0,2.0,95,0.00,,---,0.00,VWS V14.01,2013-01-16 00:26:00,
2013-01-15 18:28:00,30.3,29.0,30.11,North,352,0.0,2.0,95,0.00,,---,0.00,VWS V14.01,2013-01-16 00:28:00,
2013-01-15 18:29:00,30.3,29.0,30.12,North,352,0.0,2.0,95,0.00,,---,0.00,VWS V14.01,2013-01-16 00:29:00,
2013-01-15 18:30:00,30.4,29.1,30.12,East,86,1.0,2.0,95,0.00,,---,0.00,VWS V14.01,2013-01-16 00:30:00,
2013-01-15 18:31:00,30.4,29.1,30.11,East,79,1.0,2.0,95,0.00,,---,0.00,VWS V14.01,2013-01-16 00:31:00,
2013-01-15 18:34:00,30.4,29.1,30.11,NNW,339,1.0,3.0,95,0.00,,---,0.00,VWS V14.01,2013-01-16 00:34:00,
2013-01-15 18:35:00,30.4,29.1,30.11,ENE,70,2.0,3.0,95,0.00,,---,0.00,VWS V14.01,2013-01-16 00:35:00,
2013-01-15 18:36:00,30.4,29.1,30.11,NW,322,0.0,3.0,95,0.00,,---,0.00,VWS V14.01,2013-01-16 00:36:00,
2013-01-15 18:39:00,30.4,29.1,30.10,ENE,74,0.0,3.0,95,0.00,,---,0.00,VWS V14.01,2013-01-16 00:39:00,
2013-01-15 18:40:00,30.4,29.1,30.10,ENE,75,2.0,3.0,95,0.00,,---,0.00,VWS V14.01,2013-01-16 00:40:00,
2013-01-15 18:41:00,30.4,29.1,30.10,East,82,1.0,3.0,95,0.00,,---,0.00,VWS V14.01,2013-01-16 00:41:00,
2013-01-15 18:44:00,30.4,29.1,30.09,NNE,25,2.0,5.0,95,0.00,,---,0.00,VWS V14.01,2013-01-16 00:44:00,
2013-01-15 18:45:00,30.4,29.1,30.10,ENE,75,1.0,5.0,95,0.00,,---,0.00,VWS V14.01,2013-01-16 00:45:00,
2013-01-15 18:46:00,30.4,29.1,30.10,East,82,2.0,2.0,95,0.00,,---,0.00,VWS V14.01,2013-01-16 00:46:00,
2013-01-15 18:49:00,30.4,29.1,30.10,NNW,340,0.0,2.0,95,0.00,,---,0.00,VWS V14.01,2013-01-16 00:49:00,
2013-01-15 18:50:00,30.5,29.2,30.10,North,8,1.0,2.0,95,0.00,,---,0.00,VWS V14.01,2013-01-16 00:50:00,
2013-01-15 18:52:00,30.5,29.2,30.10,North,8,1.0,2.0,95,0.00,,---,0.00,VWS V14.01,2013-01-16 00:52:00,
2013-01-15 18:54:00,30.5,29.2,30.11,North,359,1.0,2.0,95,0.00,,---,0.00,VWS V14.01,2013-01-16 00:54:00,
2013-01-15 18:55:00,30.5,29.2,30.10,North,350,1.0,2.0,95,0.00,,---,0.00,VWS V14.01,2013-01-16 00:55:00,
2013-01-15 18:57:00,30.5,29.2,30.10,North,351,0.0,2.0,95,0.00,,---,0.00,VWS V14.01,2013-01-16 00:57:00,
2013-01-15 18:59:00,30.5,29.5,30.10,NE,56,1.0,2.0,96,0.00,,---,0.00,VWS V14.01,2013-01-16 00:59:00,
2013-01-15 19:01:00,30.5,29.5,30.10,NE,45,0.0,2.0,96,0.00,,---,0.00,VWS V14.01,2013-01-16 01:01:00,
2013-01-15 19:02:00,30.5,29.5,30.09,North,11,1.0,2.0,96,0.00,,---,0.00,VWS V14.01,2013-01-16 01:02:00,
2013-01-15 19:04:00,30.5,29.5,30.10,East,79,1.0,2.0,96,0.00,,---,0.00,VWS V14.01,2013-01-16 01:04:00,
2013-01-15 19:06:00,30.6,29.6,30.10,East,91,0.0,2.0,96,0.00,,---,0.00,VWS V14.01,2013-01-16 01:06:00,
2013-01-15 19:07:00,30.6,29.6,30.10,ENE,58,2.0,2.0,96,0.00,,---,0.00,VWS V14.01,2013-01-16 01:07:00,
2013-01-15 19:09:00,30.6,29.6,30.11,North,357,0.0,2.0,96,0.00,,---,0.00,VWS V14.01,2013-01-16 01:09:00,
2013-01-15 19:11:00,30.6,29.6,30.10,East,87,1.0,2.0,96,0.00,,---,0.00,VWS V14.01,2013-01-16 01:11:00,
2013-01-15 19:12:00,30.6,29.6,30.10,NE,51,3.0,3.0,96,0.00,,---,0.00,VWS V14.01,2013-01-16 01:12:00,
2013-01-15 19:14:00,30.6,29.6,30.10,East,96,0.0,4.0,96,0.00,,---,0.00,VWS V14.01,2013-01-16 01:14:00,
2013-01-15 19:15:00,30.6,29.6,30.10,NNE,21,0.0,4.0,96,0.00,,---,0.00,VWS V14.01,2013-01-16 01:15:00,
2013-01-15 19:16:00,30.6,29.6,30.11,NNE,24,0.0,1.0,96,0.00,,---,0.00,VWS V14.01,2013-01-16 01:16:00,
2013-01-15 19:17:00,30.6,29.6,30.11,NNE,22,0.0,1.0,96,0.00,,---,0.00,VWS V14.01,2013-01-16 01:17:00,
2013-01-15 19:19:00,30.6,29.6,30.10,North,353,1.0,2.0,96,0.00,,---,0.00,VWS V14.01,2013-01-16 01:19:00,
2013-01-15 19:20:00,30.6,29.6,30.10,NE,41,2.0,2.0,96,0.00,,---,0.00,VWS V14.01,2013-01-16 01:20:00,
2013-01-15 19:21:00,30.6,29.6,30.10,North,354,1.0,3.0,96,0.00,,---,0.00,VWS V14.01,2013-01-16 01:21:00,
2013-01-15 19:22:00,30.6,29.6,30.10,North,352,1.0,3.0,96,0.00,,---,0.00,VWS V14.01,2013-01-16 01:22:00,
2013-01-15 19:25:00,30.6,29.6,30.08,North,1,1.0,3.0,96,0.00,,---,0.00,VWS V14.01,2013-01-16 01:25:00,
2013-01-15 19:26:00,30.6,29.6,30.08,NNE,22,1.0,3.0,96,0.00,,---,0.00,VWS V14.01,2013-01-16 01:26:00,
2013-01-15 19:27:00,30.6,29.6,30.08,NNE,20,1.0,3.0,96,0.00,,---,0.00,VWS V14.01,2013-01-16 01:27:00,
2013-01-15 19:30:00,30.6,29.6,30.08,ESE,107,1.0,4.0,96,0.00,,---,0.00,VWS V14.01,2013-01-16 01:30:00,
2013-01-15 19:32:00,30.6,29.6,30.09,ENE,60,2.0,2.0,96,0.00,,---,0.00,VWS V14.01,2013-01-16 01:32:00,
2013-01-15 19:35:00,30.6,29.6,30.09,North,8,1.0,2.0,96,0.00,,---,0.00,VWS V14.01,2013-01-16 01:35:00,
2013-01-15 19:37:00,30.6,29.6,30.09,WNW,302,1.0,3.0,96,0.00,,---,0.00,VWS V14.01,2013-01-16 01:37:00,
2013-01-15 19:40:00,30.6,29.6,30.09,NNE,13,1.0,3.0,96,0.00,,---,0.00,VWS V14.01,2013-01-16 01:40:00,
2013-01-15 19:42:00,30.6,29.6,30.09,ENE,66,2.0,3.0,96,0.00,,---,0.00,VWS V14.01,2013-01-16 01:42:00,
2013-01-15 19:45:00,30.6,29.6,30.10,ENE,62,0.0,3.0,96,0.00,,---,0.00,VWS V14.01,2013-01-16 01:45:00,
2013-01-15 19:47:00,30.6,29.6,30.10,South,171,1.0,2.0,96,0.00,,---,0.00,VWS V14.01,2013-01-16 01:47:00,
2013-01-15 19:50:00,30.6,29.6,30.09,NE,51,1.0,3.0,96,0.00,,---,0.00,VWS V14.01,2013-01-16 01:50:00,
2013-01-15 19:52:00,30.6,29.6,30.10,North,359,1.0,3.0,96,0.00,,---,0.00,VWS V14.01,2013-01-16 01:52:00,
2013-01-15 19:55:00,30.6,29.6,30.10,NE,37,1.0,3.0,96,0.00,,---,0.00,VWS V14.01,2013-01-16 01:55:00,
2013-01-15 19:56:00,30.6,29.6,30.10,NE,34,0.0,3.0,96,0.00,,---,0.00,VWS V14.01,2013-01-16 01:56:00,
2013-01-15 19:57:00,30.6,29.6,30.10,North,353,0.0,3.0,96,0.00,,---,0.00,VWS V14.01,2013-01-16 01:57:00,
2013-01-15 20:00:00,30.7,29.7,30.10,NNE,20,0.0,3.0,96,0.00,,---,0.00,VWS V14.01,2013-01-16 02:00:00,
2013-01-15 20:01:00,30.7,29.7,30.10,NE,35,3.0,3.0,96,0.00,,---,0.00,VWS V14.01,2013-01-16 02:01:00,
2013-01-15 20:02:00,30.7,29.7,30.10,NNE,24,0.0,3.0,96,0.00,,---,0.00,VWS V14.01,2013-01-16 02:02:00,
2013-01-15 20:05:00,30.7,29.7,30.11,WNW,290,0.0,3.0,96,0.00,,---,0.00,VWS V14.01,2013-01-16 02:05:00,
2013-01-15 20:06:00,30.7,29.7,30.12,WNW,290,0.0,3.0,96,0.00,,---,0.00,VWS V14.01,2013-01-16 02:06:00,
2013-01-15 20:07:00,30.8,29.8,30.13,NNW,344,1.0,3.0,96,0.00,,---,0.00,VWS V14.01,2013-01-16 02:07:00,
2013-01-15 20:08:00,30.8,29.8,30.13,NNE,22,1.0,3.0,96,0.00,,---,0.00,VWS V14.01,2013-01-16 02:08:00,
2013-01-15 20:10:00,30.8,29.8,30.12,NNE,18,0.0,3.0,96,0.00,,---,0.00,VWS V14.01,2013-01-16 02:10:00,
2013-01-15 20:11:00,30.8,29.8,30.12,North,10,0.0,3.0,96,0.00,,---,0.00,VWS V14.01,2013-01-16 02:11:00,
2013-01-15 20:12:00,30.8,29.8,30.12,North,8,0.0,3.0,96,0.00,,---,0.00,VWS V14.01,2013-01-16 02:12:00,
2013-01-15 20:13:00,30.8,29.8,30.12,North,10,0.0,3.0,96,0.00,,---,0.00,VWS V14.01,2013-01-16 02:13:00,
2013-01-15 20:15:00,30.8,29.8,30.11,North,8,1.0,3.0,96,0.00,,---,0.00,VWS V14.01,2013-01-16 02:15:00,
2013-01-15 20:16:00,30.8,29.8,30.12,North,8,0.0,0.0,96,0.00,,---,0.00,VWS V14.01,2013-01-16 02:16:00,
2013-01-15 20:18:00,30.8,29.8,30.12,North,8,0.0,0.0,96,0.00,,---,0.00,VWS V14.01,2013-01-16 02:18:00,
2013-01-15 20:20:00,30.8,29.8,30.12,NNE,28,1.0,2.0,96,0.00,,---,0.00,VWS V14.01,2013-01-16 02:20:00,
2013-01-15 20:21:00,30.8,29.8,30.12,North,8,1.0,2.0,96,0.00,,---,0.00,VWS V14.01,2013-01-16 02:21:00,
2013-01-15 20:23:00,30.8,29.8,30.13,North,8,0.0,2.0,96,0.00,,---,0.00,VWS V14.01,2013-01-16 02:23:00,
2013-01-15 20:25:00,30.8,29.8,30.12,North,4,0.0,2.0,96,0.00,,---,0.00,VWS V14.01,2013-01-16 02:25:00,
2013-01-15 20:26:00,30.8,29.8,30.12,NNE,14,1.0,2.0,96,0.00,,---,0.00,VWS V14.01,2013-01-16 02:26:00,
2013-01-15 20:28:00,30.8,29.8,30.11,NNE,14,0.0,2.0,96,0.00,,---,0.00,VWS V14.01,2013-01-16 02:28:00,
2013-01-15 20:30:00,30.8,29.8,30.10,North,353,1.0,4.0,96,0.00,,---,0.00,VWS V14.01,2013-01-16 02:30:00,
2013-01-15 20:31:00,30.8,29.8,30.10,North,358,1.0,1.0,96,0.00,,---,0.00,VWS V14.01,2013-01-16 02:31:00,
2013-01-15 20:33:00,30.8,29.8,30.10,NE,56,0.0,2.0,96,0.00,,---,0.00,VWS V14.01,2013-01-16 02:33:00,
2013-01-15 20:36:00,30.9,29.9,30.11,NNE,21,0.0,2.0,96,0.00,,---,0.00,VWS V14.01,2013-01-16 02:36:00,
2013-01-15 20:37:00,30.9,29.9,30.11,NNE,21,0.0,2.0,96,0.00,,---,0.00,VWS V14.01,2013-01-16 02:37:00,
2013-01-15 20:38:00,30.9,29.9,30.11,NNE,18,0.0,2.0,96,0.00,,---,0.00,VWS V14.01,2013-01-16 02:38:00,
2013-01-15 20:41:00,30.9,29.9,30.12,NNE,18,0.0,2.0,96,0.00,,---,0.00,VWS V14.01,2013-01-16 02:41:00,
2013-01-15 20:42:00,30.9,29.9,30.12,NE,34,2.0,2.0,96,0.00,,---,0.00,VWS V14.01,2013-01-16 02:42:00,
2013-01-15 20:43:00,30.9,29.9,30.11,NNE,13,0.0,2.0,96,0.00,,---,0.00,VWS V14.01,2013-01-16 02:43:00,
2013-01-15 20:46:00,30.9,29.9,30.11,North,357,0.0,0.0,96,0.00,,---,0.00,VWS V14.01,2013-01-16 02:46:00,
2013-01-15 20:47:00,30.9,29.9,30.11,North,6,0.0,1.0,96,0.00,,---,0.00,VWS V14.01,2013-01-16 02:47:00,
2013-01-15 20:48:00,30.9,29.9,30.11,North,3,0.0,1.0,96,0.00,,---,0.00,VWS V14.01,2013-01-16 02:48:00,
2013-01-15 20:51:00,30.9,29.9,30.11,North,1,0.0,1.0,96,0.00,,---,0.00,VWS V14.01,2013-01-16 02:51:00,
2013-01-15 20:52:00,30.9,29.9,30.11,North,1,0.0,1.0,96,0.00,,---,0.00,VWS V14.01,2013-01-16 02:52:00,
2013-01-15 20:53:00,30.9,29.9,30.11,North,10,0.0,1.0,96,0.00,,---,0.00,VWS V14.01,2013-01-16 02:53:00,
2013-01-15 20:56:00,30.9,29.9,30.11,North,8,0.0,1.0,96,0.00,,---,0.00,VWS V14.01,2013-01-16 02:56:00,
2013-01-15 20:57:00,30.9,29.9,30.10,East,79,1.0,1.0,96,0.00,,---,0.00,VWS V14.01,2013-01-16 02:57:00,
2013-01-15 20:58:00,30.9,29.9,30.10,NNE,28,0.0,2.0,96,0.00,,---,0.00,VWS V14.01,2013-01-16 02:58:00,
2013-01-15 21:01:00,30.9,29.9,30.09,NNE,20,0.0,0.0,96,0.00,,---,0.00,VWS V14.01,2013-01-16 03:01:00,
2013-01-15 21:02:00,30.9,29.9,30.09,NNE,17,0.0,0.0,96,0.00,,---,0.00,VWS V14.01,2013-01-16 03:02:00,
2013-01-15 21:03:00,30.9,29.9,30.10,East,87,1.0,1.0,96,0.00,,---,0.00,VWS V14.01,2013-01-16 03:03:00,
2013-01-15 21:04:00,30.9,29.9,30.10,East,87,0.0,1.0,96,0.00,,---,0.00,VWS V14.01,2013-01-16 03:04:00,
2013-01-15 21:06:00,30.9,29.9,30.11,NNE,24,0.0,1.0,96,0.00,,---,0.00,VWS V14.01,2013-01-16 03:06:00,
2013-01-15 21:07:00,30.9,29.9,30.11,North,8,0.0,1.0,96,0.00,,---,0.00,VWS V14.01,2013-01-16 03:07:00,
2013-01-15 21:08:00,30.8,29.8,30.11,NE,39,1.0,1.0,96,0.00,,---,0.00,VWS V14.01,2013-01-16 03:08:00,
2013-01-15 21:09:00,30.9,29.9,30.11,North,10,1.0,1.0,96,0.00,,---,0.00,VWS V14.01,2013-01-16 03:09:00,
2013-01-15 21:12:00,30.8,29.8,30.10,North,349,0.0,1.0,96,0.00,,---,0.00,VWS V14.01,2013-01-16 03:12:00,
2013-01-15 21:13:00,30.8,29.8,30.10,NW,321,3.0,3.0,96,0.00,,---,0.00,VWS V14.01,2013-01-16 03:13:00,
2013-01-15 21:14:00,30.8,29.8,30.09,NE,46,1.0,3.0,96,0.00,,---,0.00,VWS V14.01,2013-01-16 03:14:00,
2013-01-15 21:17:00,30.8,29.8,30.09,North,360,1.0,2.0,96,0.00,,---,0.00,VWS V14.01,2013-01-16 03:17:00,
2013-01-15 21:19:00,30.8,29.8,30.09,ESE,119,1.0,2.0,96,0.00,,---,0.00,VWS V14.01,2013-01-16 03:19:00,
2013-01-15 21:22:00,30.8,29.8,30.10,NW,325,0.0,2.0,96,0.00,,---,0.00,VWS V14.01,2013-01-16 03:22:00,
2013-01-15 21:24:00,30.8,29.8,30.10,NW,325,0.0,2.0,96,0.00,,---,0.00,VWS V14.01,2013-01-16 03:24:00,
2013-01-15 21:27:00,30.8,29.8,30.11,NNW,335,0.0,2.0,96,0.00,,---,0.00,VWS V14.01,2013-01-16 03:27:00,
2013-01-15 21:29:00,30.8,29.8,30.11,ENE,58,2.0,2.0,96,0.00,,---,0.00,VWS V14.01,2013-01-16 03:29:00,
2013-01-15 21:32:00,30.7,29.7,30.10,NNE,27,0.0,2.0,96,0.00,,---,0.00,VWS V14.01,2013-01-16 03:32:00,
2013-01-15 21:34:00,30.7,29.7,30.10,North,6,1.0,3.0,96,0.00,,---,0.00,VWS V14.01,2013-01-16 03:34:00,
2013-01-15 21:37:00,30.7,29.7,30.09,NNE,28,0.0,3.0,96,0.00,,---,0.00,VWS V14.01,2013-01-16 03:37:00,
2013-01-15 21:39:00,30.7,29.7,30.10,NNE,15,1.0,3.0,96,0.00,,---,0.00,VWS V14.01,2013-01-16 03:39:00,
2013-01-15 21:42:00,30.7,29.7,30.09,NE,37,2.0,3.0,96,0.00,,---,0.00,VWS V14.01,2013-01-16 03:42:00,
2013-01-15 21:43:00,30.6,29.6,30.09,NNW,337,1.0,3.0,96,0.00,,---,0.00,VWS V14.01,2013-01-16 03:43:00,
2013-01-15 21:44:00,30.7,29.7,30.09,NE,40,1.0,3.0,96,0.00,,---,0.00,VWS V14.01,2013-01-16 03:44:00,
2013-01-15 21:47:00,30.7,29.7,30.10,East,100,1.0,2.0,96,0.00,,---,0.00,VWS V14.01,2013-01-16 03:47:00,
2013-01-15 21:48:00,30.6,29.6,30.10,NNE,15,0.0,2.0,96,0.00,,---,0.00,VWS V14.01,2013-01-16 03:48:00,
2013-01-15 21:49:00,30.6,29.6,30.10,North,352,1.0,2.0,96,0.00,,---,0.00,VWS V14.01,2013-01-16 03:49:00,
2013-01-15 21:52:00,30.7,29.7,30.10,NNE,22,0.0,2.0,96,0.00,,---,0.00,VWS V14.01,2013-01-16 03:52:00,
2013-01-15 21:53:00,30.7,29.7,30.10,NNE,19,0.0,2.0,96,0.00,,---,0.00,VWS V14.01,2013-01-16 03:53:00,
2013-01-15 21:54:00,30.7,29.7,30.10,NNE,27,1.0,2.0,96,0.00,,---,0.00,VWS V14.01,2013-01-16 03:54:00,
2013-01-15 21:57:00,30.7,29.7,30.09,North,6,0.0,2.0,96,0.00,,---,0.00,VWS V14.01,2013-01-16 03:57:00,
2013-01-15 21:58:00,30.6,29.6,30.08,North,8,0.0,2.0,96,0.00,,---,0.00,VWS V14.01,2013-01-16 03:58:00,
2013-01-15 21:59:00,30.6,29.6,30.08,NNE,21,1.0,2.0,96,0.00,,---,0.00,VWS V14.01,2013-01-16 03:59:00,
2013-01-15 22:00:00,30.6,29.6,30.08,NNE,20,1.0,2.0,96,0.00,,---,0.00,VWS V14.01,2013-01-16 04:00:00,
2013-01-15 22:03:00,30.6,29.6,30.08,NE,36,0.0,1.0,96,0.00,,---,0.00,VWS V14.01,2013-01-16 04:03:00,
2013-01-15 22:04:00,30.6,29.6,30.07,NE,35,0.0,1.0,96,0.00,,---,0.00,VWS V14.01,2013-01-16 04:04:00,
2013-01-15 22:05:00,30.6,29.6,30.07,NNE,29,0.0,1.0,96,0.00,,---,0.00,VWS V14.01,2013-01-16 04:05:00,
2013-01-15 22:08:00,30.6,29.6,30.08,NNE,32,0.0,2.0,96,0.00,,---,0.00,VWS V14.01,2013-01-16 04:08:00,
2013-01-15 22:09:00,30.6,29.6,30.08,NNW,340,1.0,2.0,96,0.00,,---,0.00,VWS V14.01,2013-01-16 04:09:00,
2013-01-15 22:10:00,30.6,29.6,30.08,NNW,341,0.0,2.0,96,0.00,,---,0.00,VWS V14.01,2013-01-16 04:10:00,
2013-01-15 22:13:00,30.6,29.6,30.08,North,7,1.0,2.0,96,0.00,,---,0.00,VWS V14.01,2013-01-16 04:13:00,
2013-01-15 22:14:00,30.6,29.6,30.08,West,272,1.0,3.0,96,0.00,,---,0.00,VWS V14.01,2013-01-16 04:14:00,
2013-01-15 22:15:00,30.6,29.6,30.07,WNW,285,1.0,3.0,96,0.00,,---,0.00,VWS V14.01,2013-01-16 04:15:00,
2013-01-15 22:18:00,30.6,29.6,30.08,West,278,1.0,2.0,96,0.00,,---,0.00,VWS V14.01,2013-01-16 04:18:00,
2013-01-15 22:19:00,30.6,29.6,30.09,NNW,344,1.0,3.0,96,0.00,,---,0.00,VWS V14.01,2013-01-16 04:19:00,
2013-01-15 22:20:00,30.5,29.5,30.09,NW,321,1.0,3.0,96,0.00,,---,0.00,VWS V14.01,2013-01-16 04:20:00,
2013-01-15 22:23:00,30.6,29.6,30.10,NNW,330,0.0,3.0,96,0.00,,---,0.00,VWS V14.01,2013-01-16 04:23:00,
2013-01-15 22:25:00,30.6,29.6,30.11,NNW,333,0.0,3.0,96,0.00,,---,0.00,VWS V14.01,2013-01-16 04:25:00,
2013-01-15 22:28:00,30.6,29.6,30.11,North,353,1.0,3.0,96,0.00,,---,0.00,VWS V14.01,2013-01-16 04:28:00,
2013-01-15 22:30:00,30.6,29.6,30.10,North,359,1.0,3.0,96,0.00,,---,0.00,VWS V14.01,2013-01-16 04:30:00,
2013-01-15 22:33:00,30.6,29.6,30.10,North,350,2.0,3.0,96,0.00,,---,0.00,VWS V14.01,2013-01-16 04:33:00,
2013-01-15 22:34:00,30.6,29.6,30.10,North,350,1.0,3.0,96,0.00,,---,0.00,VWS V14.01,2013-01-16 04:34:00,
2013-01-15 22:35:00,30.6,29.6,30.11,NNW,337,1.0,3.0,96,0.00,,---,0.00,VWS V14.01,2013-01-16 04:35:00,
2013-01-15 22:38:00,30.6,29.6,30.09,North,360,1.0,3.0,96,0.00,,---,0.00,VWS V14.01,2013-01-16 04:38:00,
2013-01-15 22:39:00,30.6,29.6,30.09,North,353,1.0,3.0,96,0.00,,---,0.00,VWS V14.01,2013-01-16 04:39:00,
2013-01-15 22:40:00,30.6,29.6,30.10,North,352,0.0,3.0,96,0.00,,---,0.00,VWS V14.01,2013-01-16 04:40:00,
2013-01-15 22:43:00,30.6,29.6,30.11,ENE,70,3.0,3.0,96,0.00,,---,0.00,VWS V14.01,2013-01-16 04:43:00,
2013-01-15 22:44:00,30.6,29.6,30.11,NNE,22,2.0,3.0,96,0.00,,---,0.00,VWS V14.01,2013-01-16 04:44:00,
2013-01-15 22:45:00,30.6,29.6,30.11,East,91,1.0,3.0,96,0.00,,---,0.00,VWS V14.01,2013-01-16 04:45:00,
2013-01-15 22:49:00,30.6,29.6,30.11,NNE,33,2.0,3.0,96,0.00,,---,0.00,VWS V14.01,2013-01-16 04:49:00,
2013-01-15 22:50:00,30.7,29.7,30.11,North,11,3.0,3.0,96,0.00,,---,0.00,VWS V14.01,2013-01-16 04:50:00,
2013-01-15 22:54:00,30.7,29.7,30.11,NNE,15,0.0,3.0,96,0.00,,---,0.00,VWS V14.01,2013-01-16 04:54:00,
2013-01-15 22:55:00,30.7,29.7,30.11,NNE,14,0.0,3.0,96,0.00,,---,0.00,VWS V14.01,2013-01-16 04:55:00,
2013-01-15 22:59:00,30.7,29.7,30.09,NNW,342,1.0,3.0,96,0.00,,---,0.00,VWS V14.01,2013-01-16 04:59:00,
2013-01-15 23:00:00,30.7,29.7,30.09,NNW,343,0.0,3.0,96,0.00,,---,0.00,VWS V14.01,2013-01-16 05:00:00,
2013-01-15 23:03:00,30.7,29.7,30.10,North,11,2.0,2.0,96,0.00,,---,0.00,VWS V14.01,2013-01-16 05:03:00,
2013-01-15 23:05:00,30.7,29.7,30.10,ENE,60,2.0,3.0,96,0.00,,---,0.00,VWS V14.01,2013-01-16 05:05:00,
2013-01-15 23:06:00,30.7,29.7,30.10,NNE,25,0.0,3.0,96,0.00,,---,0.00,VWS V14.01,2013-01-16 05:06:00,
2013-01-15 23:08:00,30.8,29.8,30.10,NNE,25,0.0,3.0,96,0.00,,---,0.00,VWS V14.01,2013-01-16 05:08:00,
2013-01-15 23:10:00,30.7,29.7,30.10,North,352,1.0,3.0,96,0.00,,---,0.00,VWS V14.01,2013-01-16 05:10:00,
2013-01-15 23:11:00,30.8,29.8,30.10,North,351,0.0,3.0,96,0.00,,---,0.00,VWS V14.01,2013-01-16 05:11:00,
2013-01-15 23:13:00,30.8,29.8,30.11,North,350,0.0,3.0,96,0.00,,---,0.00,VWS V14.01,2013-01-16 05:13:00,
2013-01-15 23:15:00,30.8,29.8,30.12,North,350,0.0,3.0,96,0.00,,---,0.00,VWS V14.01,2013-01-16 05:15:00,
2013-01-15 23:16:00,30.8,29.8,30.12,NNW,330,0.0,0.0,96,0.00,,---,0.00,VWS V14.01,2013-01-16 05:16:00,
2013-01-15 23:18:00,30.8,29.8,30.11,NNW,330,0.0,1.0,96,0.00,,---,0.00,VWS V14.01,2013-01-16 05:18:00,
2013-01-15 23:20:00,30.9,29.9,30.11,NNW,330,0.0,1.0,96,0.00,,---,0.00,VWS V14.01,2013-01-16 05:20:00,
2013-01-15 23:21:00,30.8,29.8,30.11,North,4,0.0,1.0,96,0.00,,---,0.00,VWS V14.01,2013-01-16 05:21:00,
2013-01-15 23:23:00,30.9,29.9,30.11,North,3,0.0,1.0,96,0.00,,---,0.00,VWS V14.01,2013-01-16 05:23:00,
2013-01-15 23:25:00,30.9,29.9,30.12,North,3,0.0,1.0,96,0.00,,---,0.00,VWS V14.01,2013-01-16 05:25:00,
2013-01-15 23:26:00,30.9,29.9,30.12,East,98,0.0,1.0,96,0.00,,---,0.00,VWS V14.01,2013-01-16 05:26:00,
2013-01-15 23:28:00,30.9,30.0,30.12,East,98,0.0,1.0,96,0.00,,,0.00,weatherlink.com 1.10,2013-01-16 05:28:00,
2013-01-15 23:30:00,30.9,29.9,30.11,East,98,0.0,1.0,96,0.00,,---,0.00,VWS V14.01,2013-01-16 05:30:00,
2013-01-15 23:31:00,30.9,29.9,30.11,East,98,0.0,1.0,96,0.00,,---,0.00,VWS V14.01,2013-01-16 05:31:00,
2013-01-15 23:32:00,30.9,29.9,30.11,East,98,0.0,0.0,96,0.00,,---,0.00,VWS V14.01,2013-01-16 05:32:00,
2013-01-15 23:33:00,30.9,29.9,30.10,East,98,0.0,0.0,96,0.00,,---,0.00,VWS V14.01,2013-01-16 05:33:00,
2013-01-15 23:35:00,31.0,30.0,30.10,North,6,1.0,1.0,96,0.00,,---,0.00,VWS V14.01,2013-01-16 05:35:00,
2013-01-15 23:36:00,31.0,30.0,30.10,North,3,0.0,1.0,96,0.00,,---,0.00,VWS V14.01,2013-01-16 05:36:00,
2013-01-15 23:38:00,31.0,30.0,30.12,North,359,0.0,1.0,96,0.00,,---,0.00,VWS V14.01,2013-01-16 05:38:00,
2013-01-15 23:40:00,31.0,30.0,30.12,NNW,327,0.0,1.0,96,0.00,,---,0.00,VWS V14.01,2013-01-16 05:40:00,
2013-01-15 23:41:00,31.0,30.0,30.12,NW,326,0.0,1.0,96,0.00,,---,0.00,VWS V14.01,2013-01-16 05:41:00,
2013-01-15 23:43:00,31.0,30.0,30.11,NW,326,0.0,1.0,96,0.00,,---,0.00,VWS V14.01,2013-01-16 05:43:00,
2013-01-15 23:45:00,31.0,30.0,30.11,NNW,330,0.0,1.0,96,0.00,,---,0.00,VWS V14.01,2013-01-16 05:45:00,
2013-01-15 23:46:00,31.0,30.0,30.11,NNW,330,0.0,0.0,96,0.00,,---,0.00,VWS V14.01,2013-01-16 05:46:00,
2013-01-15 23:47:00,31.0,30.0,30.11,NNW,330,0.0,0.0,96,0.00,,---,0.00,VWS V14.01,2013-01-16 05:47:00,
2013-01-15 23:49:00,31.0,30.0,30.11,NNW,330,0.0,0.0,96,0.00,,---,0.00,VWS V14.01,2013-01-16 05:49:00,
2013-01-15 23:50:00,31.1,30.1,30.12,NNW,330,0.0,0.0,96,0.00,,---,0.00,VWS V14.01,2013-01-16 05:50:00,
2013-01-15 23:52:00,31.1,30.1,30.12,NNW,330,0.0,0.0,96,0.00,,---,0.00,VWS V14.01,2013-01-16 05:52:00,
2013-01-15 23:54:00,31.1,30.1,30.12,NNW,330,0.0,1.0,96,0.00,,---,0.00,VWS V14.01,2013-01-16 05:54:00,
2013-01-15 23:55:00,31.1,30.1,30.12,NNW,330,0.0,1.0,96,0.00,,---,0.00,VWS V14.01,2013-01-16 05:55:00,
2013-01-15 23:57:00,31.1,30.1,30.12,NNW,330,0.0,1.0,96,0.00,,---,0.00,VWS V14.01,2013-01-16 05:57:00,
2013-01-15 23:59:00,31.1,30.1,30.12,NNW,331,0.0,1.0,96,0.00,,---,0.00,VWS V14.01,2013-01-16 05:59:00,